Time,TemperatureF,DewpointF,PressureIn,WindDirection,WindDirectionDegrees,WindSpeedMPH,WindSpeedGustMPH,Humidity,HourlyPrecipIn,Conditions,Clouds,dailyrainin,SoftwareType,DateUTC
2013-07-23 00:00:00,64.4,6.7,30.00,SSW,197,3.1,5.8,10,0.00,,---,0.00,VWS V14.01,2013-07-23 06:00:00,
2013-07-23 00:01:00,64.4,6.7,30.00,SSW,197,5.4,5.4,10,0.00,,---,0.00,VWS V14.01,2013-07-23 06:01:00,
2013-07-23 00:04:00,64.2,8.6,30.00,South,190,4.0,5.4,11,0.00,,---,0.00,VWS V14.01,2013-07-23 06:04:00,
2013-07-23 00:05:00,64.2,8.6,30.00,SSW,193,3.1,5.4,11,0.00,,---,0.00,VWS V14.01,2013-07-23 06:05:00,
2013-07-23 00:06:00,64.2,8.6,30.00,SSW,210,3.6,5.4,11,0.00,,---,0.00,VWS V14.01,2013-07-23 06:06:00,
2013-07-23 00:09:00,64.0,8.5,30.00,SSW,193,4.9,5.4,11,0.00,,---,0.00,VWS V14.01,2013-07-23 06:09:00,
2013-07-23 00:10:00,63.9,8.4,30.00,SSW,197,4.0,5.4,11,0.00,,---,0.00,VWS V14.01,2013-07-23 06:10:00,
2013-07-23 00:11:00,63.9,8.4,30.00,SSW,202,3.1,5.4,11,0.00,,---,0.00,VWS V14.01,2013-07-23 06:11:00,
2013-07-23 00:12:00,63.9,8.4,30.00,SSW,202,4.9,5.4,11,0.00,,---,0.00,VWS V14.01,2013-07-23 06:12:00,
2013-07-23 00:14:00,63.9,8.4,30.00,SSW,193,4.0,6.3,11,0.00,,---,0.00,VWS V14.01,2013-07-23 06:14:00,
2013-07-23 00:15:00,63.9,8.4,30.00,SSW,198,5.8,6.3,11,0.00,,---,0.00,VWS V14.01,2013-07-23 06:15:00,
2013-07-23 00:16:00,63.9,8.4,30.00,South,191,5.8,5.8,11,0.00,,---,0.00,VWS V14.01,2013-07-23 06:16:00,
2013-07-23 00:17:00,63.9,8.4,30.00,SSW,195,6.3,6.3,11,0.00,,---,0.00,VWS V14.01,2013-07-23 06:17:00,
2013-07-23 00:19:00,63.9,8.4,30.00,SSW,199,4.0,6.3,11,0.00,,---,0.00,VWS V14.01,2013-07-23 06:19:00,
2013-07-23 00:20:00,63.7,8.2,30.00,SSW,194,2.7,6.3,11,0.00,,---,0.00,VWS V14.01,2013-07-23 06:20:00,
2013-07-23 00:21:00,63.7,8.2,30.00,SSW,195,3.6,6.3,11,0.00,,---,0.00,VWS V14.01,2013-07-23 06:21:00,
2013-07-23 00:22:00,63.7,8.2,30.00,SSW,196,5.8,6.3,11,0.00,,---,0.00,VWS V14.01,2013-07-23 06:22:00,
2013-07-23 00:25:00,63.7,8.2,30.00,South,190,3.6,6.3,11,0.00,,---,0.00,VWS V14.01,2013-07-23 06:25:00,
2013-07-23 00:27:00,63.7,8.2,30.00,SSW,196,4.9,6.3,11,0.00,,---,0.00,VWS V14.01,2013-07-23 06:27:00,
2013-07-23 00:28:00,63.7,8.2,30.00,SSW,195,4.0,6.3,11,0.00,,---,0.00,VWS V14.01,2013-07-23 06:28:00,
2013-07-23 00:30:00,63.9,8.4,30.00,South,182,5.4,5.4,11,0.00,,---,0.00,VWS V14.01,2013-07-23 06:30:00,
2013-07-23 00:31:00,63.9,8.4,30.00,SSW,192,3.6,5.4,11,0.00,,---,0.00,VWS V14.01,2013-07-23 06:31:00,
2013-07-23 00:32:00,63.9,8.4,30.00,South,191,4.0,5.4,11,0.00,,---,0.00,VWS V14.01,2013-07-23 06:32:00,
2013-07-23 00:33:00,63.9,8.4,30.00,SSW,199,3.6,5.4,11,0.00,,---,0.00,VWS V14.01,2013-07-23 06:33:00,
2013-07-23 00:35:00,63.9,8.4,30.00,SSW,196,4.9,5.4,11,0.00,,---,0.00,VWS V14.01,2013-07-23 06:35:00,
2013-07-23 00:36:00,63.9,8.4,30.00,SSW,193,4.9,5.4,11,0.00,,---,0.00,VWS V14.01,2013-07-23 06:36:00,
2013-07-23 00:37:00,63.9,8.4,30.00,South,185,3.1,5.4,11,0.00,,---,0.00,VWS V14.01,2013-07-23 06:37:00,
2013-07-23 00:38:00,63.9,8.4,30.00,SSW,201,3.6,5.4,11,0.00,,---,0.00,VWS V14.01,2013-07-23 06:38:00,
2013-07-23 00:41:00,63.9,8.4,30.00,West,276,2.7,5.4,11,0.00,,---,0.00,VWS V14.01,2013-07-23 06:41:00,
2013-07-23 00:42:00,63.7,8.2,30.00,SW,227,2.7,5.4,11,0.00,,---,0.00,VWS V14.01,2013-07-23 06:42:00,
2013-07-23 00:43:00,63.3,7.9,30.00,SSW,200,3.6,5.4,11,0.00,,---,0.00,VWS V14.01,2013-07-23 06:43:00,
2013-07-23 00:46:00,63.3,7.9,30.00,SSW,199,4.0,4.0,11,0.00,,---,0.00,VWS V14.01,2013-07-23 06:46:00,
2013-07-23 00:47:00,63.3,7.9,30.00,SSW,197,6.3,6.3,11,0.00,,---,0.00,VWS V14.01,2013-07-23 06:47:00,
2013-07-23 00:48:00,63.3,7.9,30.00,SSW,197,6.3,6.3,11,0.00,,---,0.00,VWS V14.01,2013-07-23 06:48:00,
2013-07-23 00:51:00,63.9,8.4,30.00,SSW,199,4.9,6.3,11,0.00,,---,0.00,VWS V14.01,2013-07-23 06:51:00,
2013-07-23 00:52:00,63.9,8.4,30.00,SSW,195,4.0,6.3,11,0.00,,---,0.00,VWS V14.01,2013-07-23 06:52:00,
2013-07-23 00:53:00,63.9,8.4,30.00,South,184,5.4,6.3,11,0.00,,---,0.00,VWS V14.01,2013-07-23 06:53:00,
2013-07-23 00:57:00,63.7,11.9,30.00,SSW,199,5.8,6.3,13,0.00,,---,0.00,VWS V14.01,2013-07-23 06:57:00,
2013-07-23 00:58:00,63.5,11.8,30.00,SSW,201,4.0,6.3,13,0.00,,---,0.00,VWS V14.01,2013-07-23 06:58:00,
2013-07-23 01:02:00,63.3,11.7,30.00,SSW,200,3.1,5.8,13,0.00,,---,0.00,VWS V14.01,2013-07-23 07:02:00,
2013-07-23 01:03:00,63.1,11.5,30.00,SSW,198,3.6,5.8,13,0.00,,---,0.00,VWS V14.01,2013-07-23 07:03:00,
2013-07-23 01:04:00,63.1,11.5,30.00,SSW,196,3.1,5.8,13,0.00,,---,0.00,VWS V14.01,2013-07-23 07:04:00,
2013-07-23 01:07:00,63.0,11.4,30.00,South,179,3.1,5.8,13,0.00,,---,0.00,VWS V14.01,2013-07-23 07:07:00,
2013-07-23 01:08:00,63.0,11.4,30.00,SSW,192,4.0,5.8,13,0.00,,---,0.00,VWS V14.01,2013-07-23 07:08:00,
2013-07-23 01:09:00,63.0,11.4,30.00,South,189,2.7,5.8,13,0.00,,---,0.00,VWS V14.01,2013-07-23 07:09:00,
2013-07-23 01:12:00,62.8,11.2,30.00,South,185,2.7,5.8,13,0.00,,---,0.00,VWS V14.01,2013-07-23 07:12:00,
2013-07-23 01:13:00,62.6,11.1,30.00,South,184,2.2,5.8,13,0.00,,---,0.00,VWS V14.01,2013-07-23 07:13:00,
2013-07-23 01:14:00,62.6,11.1,30.00,South,184,2.2,5.8,13,0.00,,---,0.00,VWS V14.01,2013-07-23 07:14:00,
2013-07-23 01:17:00,62.4,12.6,30.00,SSW,192,3.6,3.6,14,0.00,,---,0.00,VWS V14.01,2013-07-23 07:17:00,
2013-07-23 01:18:00,62.4,12.6,30.00,SSW,192,3.6,3.6,14,0.00,,---,0.00,VWS V14.01,2013-07-23 07:18:00,
2013-07-23 01:19:00,62.2,12.5,30.00,South,187,2.2,3.6,14,0.00,,---,0.00,VWS V14.01,2013-07-23 07:19:00,
2013-07-23 01:23:00,62.2,12.5,30.00,South,181,3.1,3.6,14,0.00,,---,0.00,VWS V14.01,2013-07-23 07:23:00,
2013-07-23 01:24:00,62.1,12.3,30.00,South,172,3.1,3.6,14,0.00,,---,0.00,VWS V14.01,2013-07-23 07:24:00,
2013-07-23 01:28:00,62.1,12.3,30.00,SSW,201,3.6,5.4,14,0.00,,---,0.00,VWS V14.01,2013-07-23 07:28:00,
2013-07-23 01:29:00,62.2,12.5,30.00,South,185,4.0,5.4,14,0.00,,---,0.00,VWS V14.01,2013-07-23 07:29:00,
2013-07-23 01:30:00,62.4,12.6,30.00,SSW,196,4.9,5.4,14,0.00,,---,0.00,VWS V14.01,2013-07-23 07:30:00,
2013-07-23 01:33:00,62.6,11.1,30.00,SSW,202,3.6,5.4,13,0.00,,---,0.00,VWS V14.01,2013-07-23 07:33:00,
2013-07-23 01:34:00,62.6,11.1,30.00,SW,220,5.4,5.4,13,0.00,,---,0.00,VWS V14.01,2013-07-23 07:34:00,
2013-07-23 01:35:00,62.8,11.2,30.00,South,191,5.8,7.6,13,0.00,,---,0.00,VWS V14.01,2013-07-23 07:35:00,
2013-07-23 01:39:00,63.1,11.5,30.00,SSW,196,5.4,7.6,13,0.00,,---,0.00,VWS V14.01,2013-07-23 07:39:00,
2013-07-23 01:40:00,63.5,11.8,30.00,SSW,204,4.0,7.6,13,0.00,,---,0.00,VWS V14.01,2013-07-23 07:40:00,
2013-07-23 01:44:00,63.9,12.1,30.00,South,185,5.4,7.6,13,0.00,,---,0.00,VWS V14.01,2013-07-23 07:44:00,
2013-07-23 01:45:00,63.9,12.1,30.00,SSW,194,5.8,7.6,13,0.00,,---,0.00,VWS V14.01,2013-07-23 07:45:00,
2013-07-23 01:49:00,64.2,8.6,30.00,SSW,200,5.4,6.3,11,0.00,,---,0.00,VWS V14.01,2013-07-23 07:49:00,
2013-07-23 01:50:00,64.2,8.6,30.00,SSW,200,5.4,6.3,11,0.00,,---,0.00,VWS V14.01,2013-07-23 07:50:00,
2013-07-23 01:51:00,64.4,6.7,30.00,SSW,196,6.3,6.3,10,0.00,,---,0.00,VWS V14.01,2013-07-23 07:51:00,
2013-07-23 01:54:00,64.4,6.7,30.00,SSW,194,4.0,6.3,10,0.00,,---,0.00,VWS V14.01,2013-07-23 07:54:00,
2013-07-23 01:55:00,64.4,6.7,30.00,SSW,194,4.0,6.3,10,0.00,,---,0.00,VWS V14.01,2013-07-23 07:55:00,
2013-07-23 01:58:00,64.2,8.6,30.00,South,187,3.1,6.3,11,0.00,,---,0.00,VWS V14.01,2013-07-23 07:58:00,
2013-07-23 01:59:00,64.2,8.6,30.00,South,181,2.2,6.3,11,0.00,,---,0.00,VWS V14.01,2013-07-23 07:59:00,
2013-07-23 02:00:00,64.2,8.6,30.00,South,181,2.2,6.3,11,0.00,,---,0.00,VWS V14.01,2013-07-23 08:00:00,
2013-07-23 02:01:00,64.0,8.5,30.00,South,179,2.2,2.2,11,0.00,,---,0.00,VWS V14.01,2013-07-23 08:01:00,
2013-07-23 02:03:00,63.7,8.2,30.00,South,178,2.2,2.2,11,0.00,,---,0.00,VWS V14.01,2013-07-23 08:03:00,
2013-07-23 02:04:00,63.5,8.1,30.00,South,178,0.0,2.7,11,0.00,,---,0.00,VWS V14.01,2013-07-23 08:04:00,
2013-07-23 02:05:00,63.3,7.9,30.00,South,178,2.2,2.7,11,0.00,,---,0.00,VWS V14.01,2013-07-23 08:05:00,
2013-07-23 02:06:00,63.3,7.9,30.00,South,178,2.2,2.7,11,0.00,,---,0.00,VWS V14.01,2013-07-23 08:06:00,
2013-07-23 02:08:00,62.8,7.5,30.00,South,178,2.7,2.7,11,0.00,,---,0.00,VWS V14.01,2013-07-23 08:08:00,
2013-07-23 02:10:00,62.6,7.4,30.00,South,178,2.2,2.7,11,0.00,,---,0.00,VWS V14.01,2013-07-23 08:10:00,
2013-07-23 02:11:00,62.4,7.2,30.00,South,188,4.0,4.0,11,0.00,,---,0.00,VWS V14.01,2013-07-23 08:11:00,
2013-07-23 02:14:00,62.2,7.1,30.00,South,191,4.0,5.4,11,0.00,,---,0.00,VWS V14.01,2013-07-23 08:14:00,
2013-07-23 02:15:00,62.2,7.1,30.00,SSW,192,5.4,5.4,11,0.00,,---,0.00,VWS V14.01,2013-07-23 08:15:00,
2013-07-23 02:16:00,62.2,7.1,30.00,SSW,198,6.3,6.3,11,0.00,,---,0.00,VWS V14.01,2013-07-23 08:16:00,
2013-07-23 02:19:00,62.6,7.4,30.00,SSW,200,4.0,6.3,11,0.00,,---,0.00,VWS V14.01,2013-07-23 08:19:00,
2013-07-23 02:20:00,63.0,7.7,30.00,SSW,198,5.4,6.3,11,0.00,,---,0.00,VWS V14.01,2013-07-23 08:20:00,
2013-07-23 02:21:00,63.1,7.8,30.00,SSW,197,4.0,6.3,11,0.00,,---,0.00,VWS V14.01,2013-07-23 08:21:00,
2013-07-23 02:22:00,63.1,7.8,30.00,SSW,197,4.0,6.3,11,0.00,,---,0.00,VWS V14.01,2013-07-23 08:22:00,
2013-07-23 02:24:00,63.1,7.8,30.00,South,185,3.6,6.3,11,0.00,,---,0.00,VWS V14.01,2013-07-23 08:24:00,
2013-07-23 02:25:00,63.1,7.8,30.00,South,177,2.2,6.3,11,0.00,,---,0.00,VWS V14.01,2013-07-23 08:25:00,
2013-07-23 02:26:00,63.1,7.8,30.00,South,185,2.7,6.3,11,0.00,,---,0.00,VWS V14.01,2013-07-23 08:26:00,
2013-07-23 02:27:00,63.0,7.7,30.00,South,173,2.7,6.3,11,0.00,,---,0.00,VWS V14.01,2013-07-23 08:27:00,
2013-07-23 02:29:00,62.8,7.5,30.00,SSW,198,3.1,6.3,11,0.00,,---,0.00,VWS V14.01,2013-07-23 08:29:00,
2013-07-23 02:31:00,62.6,7.4,30.00,South,171,2.2,3.6,11,0.00,,---,0.00,VWS V14.01,2013-07-23 08:31:00,
2013-07-23 02:32:00,62.6,7.4,30.00,South,170,0.0,3.6,11,0.00,,---,0.00,VWS V14.01,2013-07-23 08:32:00,
2013-07-23 02:34:00,62.4,7.2,30.00,South,170,0.0,3.6,11,0.00,,---,0.00,VWS V14.01,2013-07-23 08:34:00,
2013-07-23 02:36:00,62.2,7.1,30.00,South,170,0.0,3.6,11,0.00,,---,0.00,VWS V14.01,2013-07-23 08:36:00,
2013-07-23 02:37:00,62.2,7.1,30.00,South,179,2.2,3.6,11,0.00,,---,0.00,VWS V14.01,2013-07-23 08:37:00,
2013-07-23 02:38:00,62.1,7.0,30.00,South,179,0.0,3.6,11,0.00,,---,0.00,VWS V14.01,2013-07-23 08:38:00,
2013-07-23 02:40:00,62.1,7.0,30.00,SSE,165,0.0,3.6,11,0.00,,---,0.00,VWS V14.01,2013-07-23 08:40:00,
2013-07-23 02:42:00,62.1,7.0,30.00,South,169,2.7,3.6,11,0.00,,---,0.00,VWS V14.01,2013-07-23 08:42:00,
2013-07-23 02:43:00,61.9,6.8,30.00,South,170,2.7,3.6,11,0.00,,---,0.00,VWS V14.01,2013-07-23 08:43:00,
2013-07-23 02:45:00,62.1,7.0,30.00,South,174,2.2,3.6,11,0.00,,---,0.00,VWS V14.01,2013-07-23 08:45:00,
2013-07-23 02:47:00,62.1,7.0,30.00,South,174,0.0,2.2,11,0.00,,---,0.00,VWS V14.01,2013-07-23 08:47:00,
2013-07-23 02:48:00,61.9,6.8,30.00,South,174,2.2,2.2,11,0.00,,---,0.00,VWS V14.01,2013-07-23 08:48:00,
2013-07-23 02:50:00,61.9,6.8,30.00,South,181,2.2,3.1,11,0.00,,---,0.00,VWS V14.01,2013-07-23 08:50:00,
2013-07-23 02:52:00,61.9,6.8,30.00,SSW,192,3.1,3.1,11,0.00,,---,0.00,VWS V14.01,2013-07-23 08:52:00,
2013-07-23 02:53:00,61.9,6.8,30.00,SSW,192,4.0,4.0,11,0.00,,---,0.00,VWS V14.01,2013-07-23 08:53:00,
2013-07-23 02:55:00,62.1,7.0,30.00,SSW,197,3.1,4.0,11,0.00,,---,0.00,VWS V14.01,2013-07-23 08:55:00,
2013-07-23 02:57:00,62.8,7.5,30.00,SSW,203,3.1,4.0,11,0.00,,---,0.00,VWS V14.01,2013-07-23 08:57:00,
2013-07-23 02:58:00,63.5,8.1,30.03,SSW,198,4.0,4.0,11,0.00,,---,0.00,VWS V14.01,2013-07-23 08:58:00,
2013-07-23 03:00:00,64.2,8.6,30.03,SW,217,2.7,4.0,11,0.00,,---,0.00,VWS V14.01,2013-07-23 09:00:00,
2013-07-23 03:02:00,64.8,6.9,30.03,SSE,164,2.7,4.0,10,0.00,,---,0.00,VWS V14.01,2013-07-23 09:02:00,
2013-07-23 03:03:00,64.8,6.9,30.03,SSW,203,3.6,4.0,10,0.00,,---,0.00,VWS V14.01,2013-07-23 09:03:00,
2013-07-23 03:05:00,64.9,7.1,30.03,SSW,195,4.0,4.0,10,0.00,,---,0.00,VWS V14.01,2013-07-23 09:05:00,
2013-07-23 03:07:00,65.5,7.5,30.03,SSW,204,3.1,4.0,10,0.00,,---,0.00,VWS V14.01,2013-07-23 09:07:00,
2013-07-23 03:08:00,65.5,7.5,30.03,South,176,2.7,4.0,10,0.00,,---,0.00,VWS V14.01,2013-07-23 09:08:00,
2013-07-23 03:09:00,65.7,7.6,30.03,SSW,210,2.7,4.0,10,0.00,,---,0.00,VWS V14.01,2013-07-23 09:09:00,
2013-07-23 03:11:00,66.0,7.9,30.03,SSW,198,2.7,4.0,10,0.00,,---,0.00,VWS V14.01,2013-07-23 09:11:00,
2013-07-23 03:12:00,66.2,8.1,30.03,South,182,3.1,4.0,10,0.00,,---,0.00,VWS V14.01,2013-07-23 09:12:00,
2013-07-23 03:14:00,66.2,8.1,30.03,South,172,2.7,4.0,10,0.00,,---,0.00,VWS V14.01,2013-07-23 09:14:00,
2013-07-23 03:16:00,66.0,7.9,30.03,South,186,4.0,4.0,10,0.00,,---,0.00,VWS V14.01,2013-07-23 09:16:00,
2013-07-23 03:18:00,65.8,7.8,30.03,SSE,147,3.1,4.0,10,0.00,,---,0.00,VWS V14.01,2013-07-23 09:18:00,
2013-07-23 03:19:00,65.7,7.6,30.03,SE,144,2.7,4.0,10,0.00,,---,0.00,VWS V14.01,2013-07-23 09:19:00,
2013-07-23 03:21:00,64.8,6.9,30.03,South,187,0.0,4.0,10,0.00,,---,0.00,VWS V14.01,2013-07-23 09:21:00,
2013-07-23 03:23:00,64.6,6.8,30.03,SSE,149,3.1,4.0,10,0.00,,---,0.00,VWS V14.01,2013-07-23 09:23:00,
2013-07-23 03:24:00,64.6,6.8,30.03,SSE,149,2.7,4.0,10,0.00,,---,0.00,VWS V14.01,2013-07-23 09:24:00,
2013-07-23 03:25:00,64.8,6.9,30.03,SE,131,2.7,4.0,10,0.00,,---,0.00,VWS V14.01,2013-07-23 09:25:00,
2013-07-23 03:26:00,64.6,6.8,30.03,SE,137,2.7,4.0,10,0.00,,---,0.00,VWS V14.01,2013-07-23 09:26:00,
2013-07-23 03:29:00,63.7,8.2,30.03,SE,137,0.0,4.0,11,0.00,,---,0.00,VWS V14.01,2013-07-23 09:29:00,
2013-07-23 03:30:00,63.5,8.1,30.03,SE,137,2.2,4.0,11,0.00,,---,0.00,VWS V14.01,2013-07-23 09:30:00,
2013-07-23 03:31:00,63.0,7.7,30.03,SE,137,0.0,2.2,11,0.00,,---,0.00,VWS V14.01,2013-07-23 09:31:00,
2013-07-23 03:34:00,62.4,7.2,30.03,ESE,118,2.2,3.1,11,0.00,,---,0.00,VWS V14.01,2013-07-23 09:34:00,
2013-07-23 03:35:00,62.1,7.0,30.03,ESE,118,0.0,3.1,11,0.00,,---,0.00,VWS V14.01,2013-07-23 09:35:00,
2013-07-23 03:36:00,61.9,6.8,30.03,SE,133,2.7,3.1,11,0.00,,---,0.00,VWS V14.01,2013-07-23 09:36:00,
2013-07-23 03:39:00,61.5,6.5,30.03,SE,132,2.2,3.1,11,0.00,,---,0.00,VWS V14.01,2013-07-23 09:39:00,
2013-07-23 03:40:00,61.5,6.5,30.03,SE,140,2.2,3.1,11,0.00,,---,0.00,VWS V14.01,2013-07-23 09:40:00,
2013-07-23 03:42:00,61.3,6.4,30.03,SE,142,2.7,3.1,11,0.00,,---,0.00,VWS V14.01,2013-07-23 09:42:00,
2013-07-23 03:44:00,61.0,6.1,30.03,South,176,2.2,3.1,11,0.00,,---,0.00,VWS V14.01,2013-07-23 09:44:00,
2013-07-23 03:45:00,61.0,6.1,30.03,South,177,2.7,2.7,11,0.00,,---,0.00,VWS V14.01,2013-07-23 09:45:00,
2013-07-23 03:47:00,61.0,6.1,30.03,South,189,3.1,3.1,11,0.00,,---,0.00,VWS V14.01,2013-07-23 09:47:00,
2013-07-23 03:49:00,61.0,6.1,30.03,South,182,3.6,4.9,11,0.00,,---,0.00,VWS V14.01,2013-07-23 09:49:00,
2013-07-23 03:50:00,61.2,6.3,30.03,SSW,200,3.1,4.9,11,0.00,,---,0.00,VWS V14.01,2013-07-23 09:50:00,
2013-07-23 03:52:00,61.3,6.4,30.03,South,191,3.6,4.9,11,0.00,,---,0.00,VWS V14.01,2013-07-23 09:52:00,
2013-07-23 03:55:00,61.3,6.4,30.03,South,189,2.7,4.9,11,0.00,,---,0.00,VWS V14.01,2013-07-23 09:55:00,
2013-07-23 03:56:00,61.3,6.4,30.03,South,190,3.1,4.9,11,0.00,,---,0.00,VWS V14.01,2013-07-23 09:56:00,
2013-07-23 03:58:00,61.5,6.5,30.03,South,176,4.0,4.9,11,0.00,,---,0.00,VWS V14.01,2013-07-23 09:58:00,
2013-07-23 04:00:00,61.7,6.7,30.03,SSW,195,3.1,4.9,11,0.00,,---,0.00,VWS V14.01,2013-07-23 10:00:00,
2013-07-23 04:01:00,61.7,6.7,30.03,South,191,3.1,3.1,11,0.00,,---,0.00,VWS V14.01,2013-07-23 10:01:00,
2013-07-23 04:04:00,62.4,7.2,30.03,SSW,196,5.4,7.6,11,0.00,,---,0.00,VWS V14.01,2013-07-23 10:04:00,
2013-07-23 04:05:00,62.4,7.2,30.03,SSW,197,4.9,7.6,11,0.00,,---,0.00,VWS V14.01,2013-07-23 10:05:00,
2013-07-23 04:06:00,62.8,7.5,30.03,SSW,200,5.8,7.6,11,0.00,,---,0.00,VWS V14.01,2013-07-23 10:06:00,
2013-07-23 04:07:00,62.8,7.5,30.03,SSW,204,5.8,7.6,11,0.00,,---,0.00,VWS V14.01,2013-07-23 10:07:00,
2013-07-23 04:09:00,63.0,7.7,30.03,SSW,204,4.5,7.6,11,0.00,,---,0.00,VWS V14.01,2013-07-23 10:09:00,
2013-07-23 04:10:00,63.5,8.1,30.03,SSW,194,5.8,7.6,11,0.00,,---,0.00,VWS V14.01,2013-07-23 10:10:00,
2013-07-23 04:11:00,63.5,8.1,30.03,SSW,198,4.5,7.6,11,0.00,,---,0.00,VWS V14.01,2013-07-23 10:11:00,
2013-07-23 04:12:00,63.5,8.1,30.03,SSW,203,5.4,7.6,11,0.00,,---,0.00,VWS V14.01,2013-07-23 10:12:00,
2013-07-23 04:14:00,63.9,8.4,30.03,SSW,192,5.8,7.6,11,0.00,,---,0.00,VWS V14.01,2013-07-23 10:14:00,
2013-07-23 04:15:00,63.9,8.4,30.03,SSW,195,6.3,7.6,11,0.00,,---,0.00,VWS V14.01,2013-07-23 10:15:00,
2013-07-23 04:16:00,63.9,8.4,30.03,South,189,4.0,6.3,11,0.00,,---,0.00,VWS V14.01,2013-07-23 10:16:00,
2013-07-23 04:17:00,64.0,8.5,30.03,South,190,4.9,6.3,11,0.00,,---,0.00,VWS V14.01,2013-07-23 10:17:00,
2013-07-23 04:19:00,64.2,8.6,30.03,South,191,4.0,6.3,11,0.00,,---,0.00,VWS V14.01,2013-07-23 10:19:00,
2013-07-23 04:20:00,64.2,8.6,30.03,South,190,5.8,6.3,11,0.00,,---,0.00,VWS V14.01,2013-07-23 10:20:00,
2013-07-23 04:21:00,64.2,8.6,30.03,South,189,4.9,6.3,11,0.00,,---,0.00,VWS V14.01,2013-07-23 10:21:00,
2013-07-23 04:22:00,64.2,8.6,30.03,South,185,4.0,6.3,11,0.00,,---,0.00,VWS V14.01,2013-07-23 10:22:00,
2013-07-23 04:24:00,64.0,8.5,30.03,South,187,4.0,6.3,11,0.00,,---,0.00,VWS V14.01,2013-07-23 10:24:00,
2013-07-23 04:25:00,63.9,8.4,30.03,SSW,197,4.9,6.3,11,0.00,,---,0.00,VWS V14.01,2013-07-23 10:25:00,
2013-07-23 04:27:00,63.9,8.4,30.03,SSW,194,7.2,7.2,11,0.00,,---,0.00,VWS V14.01,2013-07-23 10:27:00,
2013-07-23 04:28:00,63.9,8.4,30.03,SSW,192,6.3,7.2,11,0.00,,---,0.00,VWS V14.01,2013-07-23 10:28:00,
2013-07-23 04:30:00,63.9,8.4,30.03,SSW,198,4.0,7.2,11,0.00,,---,0.00,VWS V14.01,2013-07-23 10:30:00,
2013-07-23 04:31:00,63.9,8.4,30.03,South,181,4.0,5.4,11,0.00,,---,0.00,VWS V14.01,2013-07-23 10:31:00,
2013-07-23 04:32:00,63.9,8.4,30.03,SSW,200,4.5,5.4,11,0.00,,---,0.00,VWS V14.01,2013-07-23 10:32:00,
2013-07-23 04:33:00,63.9,8.4,30.03,SSW,199,4.0,5.4,11,0.00,,---,0.00,VWS V14.01,2013-07-23 10:33:00,
2013-07-23 04:35:00,63.9,8.4,30.03,South,191,4.0,5.4,11,0.00,,---,0.00,VWS V14.01,2013-07-23 10:35:00,
2013-07-23 04:36:00,63.9,8.4,30.03,South,183,4.0,5.4,11,0.00,,---,0.00,VWS V14.01,2013-07-23 10:36:00,
2013-07-23 04:37:00,63.9,8.4,30.03,SSW,197,4.0,5.4,11,0.00,,---,0.00,VWS V14.01,2013-07-23 10:37:00,
2013-07-23 04:38:00,63.9,8.4,30.03,SSW,203,5.4,5.8,11,0.00,,---,0.00,VWS V14.01,2013-07-23 10:38:00,
2013-07-23 04:40:00,63.7,8.2,30.03,SSW,198,3.1,5.8,11,0.00,,---,0.00,VWS V14.01,2013-07-23 10:40:00,
2013-07-23 04:41:00,63.7,8.2,30.03,SSW,201,3.6,5.8,11,0.00,,---,0.00,VWS V14.01,2013-07-23 10:41:00,
2013-07-23 04:42:00,63.5,8.1,30.03,SSW,201,4.0,5.8,11,0.00,,---,0.00,VWS V14.01,2013-07-23 10:42:00,
2013-07-23 04:43:00,63.5,8.1,30.03,SSW,201,4.0,5.8,11,0.00,,---,0.00,VWS V14.01,2013-07-23 10:43:00,
2013-07-23 04:44:00,63.5,8.1,30.03,SSW,197,3.6,5.8,11,0.00,,---,0.00,VWS V14.01,2013-07-23 10:44:00,
2013-07-23 04:45:00,63.5,8.1,30.03,SSW,199,4.0,4.9,11,0.00,,---,0.00,VWS V14.01,2013-07-23 10:45:00,
2013-07-23 04:46:00,63.5,8.1,30.03,SSW,197,4.0,5.8,11,0.00,,---,0.00,VWS V14.01,2013-07-23 10:46:00,
2013-07-23 04:48:00,63.5,8.1,30.03,SSW,198,5.8,5.8,11,0.00,,---,0.00,VWS V14.01,2013-07-23 10:48:00,
2013-07-23 04:49:00,63.5,8.1,30.03,South,182,4.9,6.3,11,0.00,,---,0.00,VWS V14.01,2013-07-23 10:49:00,
2013-07-23 04:51:00,63.5,8.1,30.03,SSW,203,4.0,6.3,11,0.00,,---,0.00,VWS V14.01,2013-07-23 10:51:00,
2013-07-23 04:54:00,63.3,7.9,30.03,SSW,212,3.1,6.3,11,0.00,,---,0.00,VWS V14.01,2013-07-23 10:54:00,
2013-07-23 04:55:00,63.3,7.9,30.03,SSW,201,4.0,6.3,11,0.00,,---,0.00,VWS V14.01,2013-07-23 10:55:00,
2013-07-23 04:56:00,63.1,7.8,30.03,SSW,193,4.0,6.3,11,0.00,,---,0.00,VWS V14.01,2013-07-23 10:56:00,
2013-07-23 04:57:00,63.1,7.8,30.03,SSW,196,5.4,6.3,11,0.00,,---,0.00,VWS V14.01,2013-07-23 10:57:00,
2013-07-23 04:59:00,63.1,7.8,30.03,SSE,168,3.1,6.3,11,0.00,,---,0.00,VWS V14.01,2013-07-23 10:59:00,
2013-07-23 05:00:00,63.3,7.9,30.03,SSE,166,3.1,3.1,11,0.00,,---,0.00,VWS V14.01,2013-07-23 11:00:00,
2013-07-23 05:01:00,63.1,7.8,30.03,South,184,5.4,6.3,11,0.00,,---,0.00,VWS V14.01,2013-07-23 11:01:00,
2013-07-23 05:02:00,63.1,7.8,30.03,South,191,0.0,6.3,11,0.00,,---,0.00,VWS V14.01,2013-07-23 11:02:00,
2013-07-23 05:04:00,63.1,7.8,30.03,SSW,201,2.7,6.3,11,0.00,,---,0.00,VWS V14.01,2013-07-23 11:04:00,
2013-07-23 05:05:00,63.1,7.8,30.03,South,178,2.7,6.3,11,0.00,,---,0.00,VWS V14.01,2013-07-23 11:05:00,
2013-07-23 05:06:00,63.0,7.7,30.03,SSE,166,2.7,6.3,11,0.00,,---,0.00,VWS V14.01,2013-07-23 11:06:00,
2013-07-23 05:07:00,63.0,7.7,30.03,South,176,4.0,6.3,11,0.00,,---,0.00,VWS V14.01,2013-07-23 11:07:00,
2013-07-23 05:09:00,62.8,7.5,30.03,SSW,198,3.1,6.3,11,0.00,,---,0.00,VWS V14.01,2013-07-23 11:09:00,
2013-07-23 05:10:00,62.8,7.5,30.03,SSW,199,0.0,6.3,11,0.00,,---,0.00,VWS V14.01,2013-07-23 11:10:00,
2013-07-23 05:11:00,62.8,7.5,30.03,South,176,3.1,6.3,11,0.00,,---,0.00,VWS V14.01,2013-07-23 11:11:00,
2013-07-23 05:12:00,62.8,7.5,30.03,SE,144,2.2,6.3,11,0.00,,---,0.00,VWS V14.01,2013-07-23 11:12:00,
2013-07-23 05:14:00,62.4,7.2,30.03,SSW,197,3.6,6.3,11,0.00,,---,0.00,VWS V14.01,2013-07-23 11:14:00,
2013-07-23 05:16:00,62.4,7.2,30.03,SSW,198,3.1,4.0,11,0.00,,---,0.00,VWS V14.01,2013-07-23 11:16:00,
2013-07-23 05:17:00,62.4,7.2,30.03,SSW,203,2.7,5.8,11,0.00,,---,0.00,VWS V14.01,2013-07-23 11:17:00,
2013-07-23 05:19:00,62.6,7.4,30.03,SSW,200,3.1,5.8,11,0.00,,---,0.00,VWS V14.01,2013-07-23 11:19:00,
2013-07-23 05:21:00,62.6,7.4,30.03,SSW,197,3.6,5.8,11,0.00,,---,0.00,VWS V14.01,2013-07-23 11:21:00,
2013-07-23 05:22:00,62.6,7.4,30.03,SSW,200,3.6,5.8,11,0.00,,---,0.00,VWS V14.01,2013-07-23 11:22:00,
2013-07-23 05:23:00,62.6,7.4,30.03,SSW,199,5.4,5.8,11,0.00,,---,0.00,VWS V14.01,2013-07-23 11:23:00,
2013-07-23 05:25:00,62.6,7.4,30.03,SSW,205,4.0,5.8,11,0.00,,---,0.00,VWS V14.01,2013-07-23 11:25:00,
2013-07-23 05:26:00,62.6,7.4,30.03,SSW,206,2.2,5.8,11,0.00,,---,0.00,VWS V14.01,2013-07-23 11:26:00,
2013-07-23 05:27:00,62.6,7.4,30.03,SSW,202,2.7,5.8,11,0.00,,---,0.00,VWS V14.01,2013-07-23 11:27:00,
2013-07-23 05:28:00,62.4,7.2,30.03,SSW,201,3.1,6.3,11,0.00,,---,0.00,VWS V14.01,2013-07-23 11:28:00,
2013-07-23 05:30:00,62.4,7.2,30.03,SSW,206,4.9,4.9,11,0.00,,---,0.00,VWS V14.01,2013-07-23 11:30:00,
2013-07-23 05:31:00,62.4,7.2,30.03,SSW,198,4.0,4.9,11,0.00,,---,0.00,VWS V14.01,2013-07-23 11:31:00,
2013-07-23 05:32:00,62.4,7.2,30.03,SSW,204,4.9,4.9,11,0.00,,---,0.00,VWS V14.01,2013-07-23 11:32:00,
2013-07-23 05:33:00,62.4,7.2,30.03,SW,225,3.1,4.9,11,0.00,,---,0.00,VWS V14.01,2013-07-23 11:33:00,
2013-07-23 05:35:00,62.4,7.2,30.03,SSW,203,3.6,4.9,11,0.00,,---,0.00,VWS V14.01,2013-07-23 11:35:00,
2013-07-23 05:36:00,62.4,7.2,30.03,SSW,209,4.0,5.4,11,0.00,,---,0.00,VWS V14.01,2013-07-23 11:36:00,
2013-07-23 05:37:00,62.4,7.2,30.03,SSW,206,4.0,5.4,11,0.00,,---,0.00,VWS V14.01,2013-07-23 11:37:00,
2013-07-23 05:38:00,62.2,7.1,30.03,SSW,209,4.9,5.8,11,0.00,,---,0.00,VWS V14.01,2013-07-23 11:38:00,
2013-07-23 05:40:00,62.2,7.1,30.03,SSW,209,4.0,5.8,11,0.00,,---,0.00,VWS V14.01,2013-07-23 11:40:00,
2013-07-23 05:41:00,62.4,7.2,30.03,SSW,198,3.6,5.8,11,0.00,,---,0.00,VWS V14.01,2013-07-23 11:41:00,
2013-07-23 05:42:00,62.4,7.2,30.06,SSW,210,4.0,5.8,11,0.00,,---,0.00,VWS V14.01,2013-07-23 11:42:00,
2013-07-23 05:44:00,62.4,7.2,30.06,SSW,206,4.0,5.8,11,0.00,,---,0.00,VWS V14.01,2013-07-23 11:44:00,
2013-07-23 05:45:00,62.4,7.2,30.06,SSW,203,5.8,5.8,11,0.00,,---,0.00,VWS V14.01,2013-07-23 11:45:00,
2013-07-23 05:46:00,62.4,7.2,30.06,SSW,206,4.5,5.8,11,0.00,,---,0.00,VWS V14.01,2013-07-23 11:46:00,
2013-07-23 05:47:00,62.6,11.1,30.06,SSW,202,5.4,5.8,13,0.00,,---,0.00,VWS V14.01,2013-07-23 11:47:00,
2013-07-23 05:49:00,62.4,7.2,30.06,SSW,209,6.3,6.3,11,0.00,,---,0.00,VWS V14.01,2013-07-23 11:49:00,
2013-07-23 05:50:00,62.4,12.6,30.06,SSW,194,5.4,6.3,14,0.00,,---,0.00,VWS V14.01,2013-07-23 11:50:00,
2013-07-23 05:51:00,62.4,12.6,30.06,SSW,200,5.4,6.3,14,0.00,,---,0.00,VWS V14.01,2013-07-23 11:51:00,
2013-07-23 05:53:00,62.6,7.4,30.06,SSW,208,4.0,6.3,11,0.00,,---,0.00,VWS V14.01,2013-07-23 11:53:00,
2013-07-23 05:54:00,62.6,11.1,30.06,SSW,192,5.4,6.3,13,0.00,,---,0.00,VWS V14.01,2013-07-23 11:54:00,
2013-07-23 05:56:00,62.6,7.4,30.06,SSW,211,5.4,6.3,11,0.00,,---,0.00,VWS V14.01,2013-07-23 11:56:00,
2013-07-23 05:57:00,62.6,7.4,30.06,SSW,210,4.5,6.3,11,0.00,,---,0.00,VWS V14.01,2013-07-23 11:57:00,
2013-07-23 05:58:00,62.6,11.1,30.06,SSW,208,5.4,6.3,13,0.00,,---,0.00,VWS V14.01,2013-07-23 11:58:00,
2013-07-23 05:59:00,62.6,11.1,30.06,SSW,205,4.0,6.3,13,0.00,,---,0.00,VWS V14.01,2013-07-23 11:59:00,
2013-07-23 06:01:00,62.6,11.1,30.06,SW,221,3.6,4.9,13,0.00,,---,0.00,VWS V14.01,2013-07-23 12:01:00,
2013-07-23 06:02:00,62.6,7.4,30.06,SW,216,3.6,4.9,11,0.00,,---,0.00,VWS V14.01,2013-07-23 12:02:00,
2013-07-23 06:03:00,62.4,12.6,30.06,SSW,212,2.7,4.9,14,0.00,,---,0.00,VWS V14.01,2013-07-23 12:03:00,
2013-07-23 06:04:00,62.4,12.6,30.06,SSW,211,2.7,4.9,14,0.00,,---,0.00,VWS V14.01,2013-07-23 12:04:00,
2013-07-23 06:06:00,62.2,12.5,30.06,SSW,199,3.6,4.9,14,0.00,,---,0.00,VWS V14.01,2013-07-23 12:06:00,
2013-07-23 06:07:00,62.2,12.5,30.06,SSW,193,3.6,4.9,14,0.00,,---,0.00,VWS V14.01,2013-07-23 12:07:00,
2013-07-23 06:08:00,62.2,12.5,30.06,SSW,199,4.5,5.8,14,0.00,,---,0.00,VWS V14.01,2013-07-23 12:08:00,
2013-07-23 06:10:00,62.2,12.5,30.06,SSW,197,4.5,5.8,14,0.00,,---,0.00,VWS V14.01,2013-07-23 12:10:00,
2013-07-23 06:11:00,62.1,12.3,30.06,SSW,202,3.1,5.8,14,0.00,,---,0.00,VWS V14.01,2013-07-23 12:11:00,
2013-07-23 06:12:00,62.1,12.3,30.06,SSW,206,3.6,5.8,14,0.00,,---,0.00,VWS V14.01,2013-07-23 12:12:00,
2013-07-23 06:13:00,62.1,12.3,30.06,SSW,202,3.6,5.8,14,0.00,,---,0.00,VWS V14.01,2013-07-23 12:13:00,
2013-07-23 06:15:00,61.9,12.2,30.06,SSW,200,2.7,3.6,14,0.00,,---,0.00,VWS V14.01,2013-07-23 12:15:00,
2013-07-23 06:16:00,61.9,12.2,30.06,SSW,206,3.6,4.0,14,0.00,,---,0.00,VWS V14.01,2013-07-23 12:16:00,
2013-07-23 06:17:00,61.7,12.1,30.06,SSW,205,4.0,4.0,14,0.00,,---,0.00,VWS V14.01,2013-07-23 12:17:00,
2013-07-23 06:18:00,61.7,12.1,30.06,SSW,211,3.6,4.0,14,0.00,,---,0.00,VWS V14.01,2013-07-23 12:18:00,
2013-07-23 06:20:00,61.7,12.1,30.06,SSW,207,3.6,4.9,14,0.00,,---,0.00,VWS V14.01,2013-07-23 12:20:00,
2013-07-23 06:23:00,61.7,12.1,30.06,SSW,205,3.6,4.9,14,0.00,,---,0.00,VWS V14.01,2013-07-23 12:23:00,
2013-07-23 06:26:00,61.7,12.1,30.06,SSW,201,4.0,4.9,14,0.00,,---,0.00,VWS V14.01,2013-07-23 12:26:00,
2013-07-23 06:28:00,61.9,12.2,30.06,SSW,200,4.5,5.4,14,0.00,,---,0.00,VWS V14.01,2013-07-23 12:28:00,
2013-07-23 06:31:00,62.1,12.3,30.06,SSW,200,4.5,5.4,14,0.00,,---,0.00,VWS V14.01,2013-07-23 12:31:00,
2013-07-23 06:33:00,62.4,12.6,30.06,SSW,194,5.4,5.4,14,0.00,,---,0.00,VWS V14.01,2013-07-23 12:33:00,
2013-07-23 06:34:00,62.6,11.1,30.06,SSW,200,3.6,5.4,13,0.00,,---,0.00,VWS V14.01,2013-07-23 12:34:00,
2013-07-23 06:36:00,62.6,11.1,30.06,SSW,192,4.9,5.4,13,0.00,,---,0.00,VWS V14.01,2013-07-23 12:36:00,
2013-07-23 06:38:00,62.6,11.1,30.06,SSW,198,4.9,5.4,13,0.00,,---,0.00,VWS V14.01,2013-07-23 12:38:00,
2013-07-23 06:39:00,62.6,11.1,30.06,SSW,200,4.9,5.4,13,0.00,,---,0.00,VWS V14.01,2013-07-23 12:39:00,
2013-07-23 06:42:00,63.0,11.4,30.06,SSW,200,4.0,7.2,13,0.00,,---,0.00,VWS V14.01,2013-07-23 12:42:00,
2013-07-23 06:43:00,63.0,11.4,30.03,SSW,199,3.6,7.2,13,0.00,,---,0.00,VWS V14.01,2013-07-23 12:43:00,
2013-07-23 06:44:00,63.0,11.4,30.03,SSW,196,4.0,7.2,13,0.00,,---,0.00,VWS V14.01,2013-07-23 12:44:00,
2013-07-23 06:47:00,62.8,11.2,30.03,SSW,197,4.0,4.0,13,0.00,,---,0.00,VWS V14.01,2013-07-23 12:47:00,
2013-07-23 06:48:00,62.8,11.2,30.03,South,185,4.0,4.0,13,0.00,,---,0.00,VWS V14.01,2013-07-23 12:48:00,
2013-07-23 06:49:00,62.8,11.2,30.03,South,185,2.2,4.0,13,0.00,,---,0.00,VWS V14.01,2013-07-23 12:49:00,
2013-07-23 06:52:00,62.6,11.1,30.03,SSW,194,2.2,4.0,13,0.00,,---,0.00,VWS V14.01,2013-07-23 12:52:00,
2013-07-23 06:53:00,62.6,11.1,30.03,SSW,194,0.0,4.0,13,0.00,,---,0.00,VWS V14.01,2013-07-23 12:53:00,
2013-07-23 06:54:00,62.4,12.6,30.03,SSW,194,0.0,4.0,14,0.00,,---,0.00,VWS V14.01,2013-07-23 12:54:00,
2013-07-23 06:55:00,62.4,12.6,30.03,SSW,194,0.0,4.0,14,0.00,,---,0.00,VWS V14.01,2013-07-23 12:55:00,
2013-07-23 06:57:00,62.2,12.5,30.03,South,180,0.0,4.0,14,0.00,,---,0.00,VWS V14.01,2013-07-23 12:57:00,
2013-07-23 06:59:00,62.1,12.3,30.06,SE,142,2.7,4.0,14,0.00,,---,0.00,VWS V14.01,2013-07-23 12:59:00,
2013-07-23 07:00:00,62.1,12.3,30.06,SE,130,2.7,4.0,14,0.00,,---,0.00,VWS V14.01,2013-07-23 13:00:00,
2013-07-23 07:01:00,62.1,12.3,30.06,SE,130,2.7,3.6,14,0.00,,---,0.00,VWS V14.01,2013-07-23 13:01:00,
2013-07-23 07:02:00,61.9,12.2,30.06,SE,128,2.7,3.6,14,0.00,,---,0.00,VWS V14.01,2013-07-23 13:02:00,
2013-07-23 07:04:00,61.3,11.8,30.06,SE,125,2.7,3.6,14,0.00,,---,0.00,VWS V14.01,2013-07-23 13:04:00,
2013-07-23 07:05:00,61.3,11.8,30.06,SE,125,2.2,3.6,14,0.00,,---,0.00,VWS V14.01,2013-07-23 13:05:00,
2013-07-23 07:06:00,61.2,11.6,30.06,ESE,118,2.7,3.6,14,0.00,,---,0.00,VWS V14.01,2013-07-23 13:06:00,
2013-07-23 07:08:00,60.8,14.4,30.06,ESE,117,2.7,3.6,16,0.00,,---,0.00,VWS V14.01,2013-07-23 13:08:00,
2013-07-23 07:09:00,60.6,15.6,30.06,ESE,117,2.7,3.6,17,0.00,,---,0.00,VWS V14.01,2013-07-23 13:09:00,
2013-07-23 07:10:00,60.6,15.6,30.06,ESE,117,2.7,3.6,17,0.00,,---,0.00,VWS V14.01,2013-07-23 13:10:00,
2013-07-23 07:11:00,60.6,15.6,30.06,ESE,115,3.1,3.6,17,0.00,,---,0.00,VWS V14.01,2013-07-23 13:11:00,
2013-07-23 07:13:00,60.6,15.6,30.06,ESE,115,2.2,4.0,17,0.00,,---,0.00,VWS V14.01,2013-07-23 13:13:00,
2013-07-23 07:14:00,60.6,15.6,30.06,ESE,115,3.1,4.0,17,0.00,,---,0.00,VWS V14.01,2013-07-23 13:14:00,
2013-07-23 07:15:00,60.6,15.6,30.06,ESE,117,3.6,4.0,17,0.00,,---,0.00,VWS V14.01,2013-07-23 13:15:00,
2013-07-23 07:16:00,60.8,14.4,30.06,SE,126,2.7,3.6,16,0.00,,---,0.00,VWS V14.01,2013-07-23 13:16:00,
2013-07-23 07:18:00,61.0,14.5,30.06,South,177,2.2,3.6,16,0.00,,---,0.00,VWS V14.01,2013-07-23 13:18:00,
2013-07-23 07:20:00,61.0,14.5,30.06,SSW,192,0.0,3.6,16,0.00,,---,0.00,VWS V14.01,2013-07-23 13:20:00,
2013-07-23 07:21:00,61.0,14.5,30.06,SSW,192,0.0,3.6,16,0.00,,---,0.00,VWS V14.01,2013-07-23 13:21:00,
2013-07-23 07:23:00,61.2,18.6,30.06,SSW,196,2.2,3.6,19,0.00,,---,0.00,VWS V14.01,2013-07-23 13:23:00,
2013-07-23 07:25:00,61.3,18.8,30.06,SSW,202,3.1,3.6,19,0.00,,---,0.00,VWS V14.01,2013-07-23 13:25:00,
2013-07-23 07:26:00,61.3,18.8,30.06,SSW,202,3.1,3.6,19,0.00,,---,0.00,VWS V14.01,2013-07-23 13:26:00,
2013-07-23 07:28:00,61.7,19.0,30.06,SSW,192,3.6,3.6,19,0.00,,---,0.00,VWS V14.01,2013-07-23 13:28:00,
2013-07-23 07:30:00,61.9,19.2,30.06,SSW,195,0.0,0.0,19,0.00,,---,0.00,VWS V14.01,2013-07-23 13:30:00,
2013-07-23 07:31:00,61.9,19.2,30.06,SSW,195,0.0,0.0,19,0.00,,---,0.00,VWS V14.01,2013-07-23 13:31:00,
2013-07-23 07:32:00,62.1,19.3,30.06,SSW,196,2.7,3.1,19,0.00,,---,0.00,VWS V14.01,2013-07-23 13:32:00,
2013-07-23 07:33:00,62.2,19.5,30.06,SSW,196,0.0,3.1,19,0.00,,---,0.00,VWS V14.01,2013-07-23 13:33:00,
2013-07-23 07:35:00,62.6,18.5,30.06,SSW,196,0.0,3.1,18,0.00,,---,0.00,VWS V14.01,2013-07-23 13:35:00,
2013-07-23 07:36:00,62.8,18.7,30.06,SSW,196,2.7,3.1,18,0.00,,---,0.00,VWS V14.01,2013-07-23 13:36:00,
2013-07-23 07:37:00,63.0,18.8,30.06,SSW,196,3.1,3.6,18,0.00,,---,0.00,VWS V14.01,2013-07-23 13:37:00,
2013-07-23 07:39:00,63.5,19.3,30.06,SSW,196,0.0,3.6,18,0.00,,---,0.00,VWS V14.01,2013-07-23 13:39:00,
2013-07-23 07:41:00,63.9,19.6,30.06,SSW,196,0.0,3.6,18,0.00,,---,0.00,VWS V14.01,2013-07-23 13:41:00,
2013-07-23 07:42:00,64.2,19.9,30.06,SSW,196,0.0,3.6,18,0.00,,---,0.00,VWS V14.01,2013-07-23 13:42:00,
2013-07-23 07:44:00,64.6,20.1,30.06,SSW,196,0.0,3.6,18,0.00,,---,0.00,VWS V14.01,2013-07-23 13:44:00,
2013-07-23 07:46:00,64.9,20.4,30.06,SSW,196,0.0,0.0,18,0.00,,---,0.00,VWS V14.01,2013-07-23 13:46:00,
2013-07-23 07:47:00,65.1,20.6,30.06,SSW,196,0.0,0.0,18,0.00,,---,0.00,VWS V14.01,2013-07-23 13:47:00,
2013-07-23 07:49:00,65.5,20.9,30.06,SSW,196,0.0,0.0,18,0.00,,---,0.00,VWS V14.01,2013-07-23 13:49:00,
2013-07-23 07:51:00,65.8,21.2,30.06,SSW,196,2.2,2.2,18,0.00,,---,0.00,VWS V14.01,2013-07-23 13:51:00,
2013-07-23 07:52:00,65.8,21.2,30.06,SSW,196,0.0,2.2,18,0.00,,---,0.00,VWS V14.01,2013-07-23 13:52:00,
2013-07-23 07:54:00,66.0,21.3,30.06,SSW,196,0.0,2.2,18,0.00,,---,0.00,VWS V14.01,2013-07-23 13:54:00,
2013-07-23 07:56:00,66.2,20.1,30.06,SSW,195,0.0,2.2,17,0.00,,---,0.00,VWS V14.01,2013-07-23 13:56:00,
2013-07-23 07:57:00,66.2,20.1,30.06,South,191,0.0,2.2,17,0.00,,---,0.00,VWS V14.01,2013-07-23 13:57:00,
2013-07-23 07:59:00,66.4,20.3,30.06,South,191,0.0,2.2,17,0.00,,---,0.00,VWS V14.01,2013-07-23 13:59:00,
2013-07-23 08:01:00,66.6,20.4,30.06,South,189,0.0,0.0,17,0.00,,---,0.00,VWS V14.01,2013-07-23 14:01:00,
2013-07-23 08:02:00,66.7,20.6,30.06,South,189,0.0,0.0,17,0.00,,---,0.00,VWS V14.01,2013-07-23 14:02:00,
2013-07-23 08:03:00,66.7,24.4,30.06,South,189,0.0,0.0,20,0.00,,---,0.00,VWS V14.01,2013-07-23 14:03:00,
2013-07-23 08:04:00,66.7,20.6,30.06,South,189,2.2,2.7,17,0.00,,---,0.00,VWS V14.01,2013-07-23 14:04:00,
2013-07-23 08:07:00,66.9,17.8,30.06,South,189,3.1,3.1,15,0.00,,---,0.00,VWS V14.01,2013-07-23 14:07:00,
2013-07-23 08:08:00,67.1,20.9,30.06,South,191,2.7,3.1,17,0.00,,---,0.00,VWS V14.01,2013-07-23 14:08:00,
2013-07-23 08:09:00,67.3,18.1,30.06,South,186,2.2,3.1,15,0.00,,---,0.00,VWS V14.01,2013-07-23 14:09:00,
2013-07-23 08:12:00,67.5,18.2,30.06,South,186,2.2,3.1,15,0.00,,---,0.00,VWS V14.01,2013-07-23 14:12:00,
2013-07-23 08:13:00,67.8,18.5,30.06,South,186,0.0,3.1,15,0.00,,---,0.00,VWS V14.01,2013-07-23 14:13:00,
2013-07-23 08:15:00,68.0,18.7,30.06,South,186,2.7,2.7,15,0.00,,---,0.00,VWS V14.01,2013-07-23 14:15:00,
2013-07-23 08:17:00,68.5,19.1,30.06,South,186,2.7,2.7,15,0.00,,---,0.00,VWS V14.01,2013-07-23 14:17:00,
2013-07-23 08:18:00,68.5,13.9,30.06,South,186,3.1,3.1,12,0.00,,---,0.00,VWS V14.01,2013-07-23 14:18:00,
2013-07-23 08:19:00,68.9,14.2,30.06,South,183,2.2,3.1,12,0.00,,---,0.00,VWS V14.01,2013-07-23 14:19:00,
2013-07-23 08:20:00,69.1,14.4,30.06,South,182,0.0,3.1,12,0.00,,---,0.00,VWS V14.01,2013-07-23 14:20:00,
2013-07-23 08:22:00,69.6,20.0,30.06,South,182,0.0,3.1,15,0.00,,---,0.00,VWS V14.01,2013-07-23 14:22:00,
2013-07-23 08:23:00,69.8,18.5,30.06,South,183,0.0,3.1,14,0.00,,---,0.00,VWS V14.01,2013-07-23 14:23:00,
2013-07-23 08:24:00,70.0,18.6,30.06,South,182,0.0,3.1,14,0.00,,---,0.00,VWS V14.01,2013-07-23 14:24:00,
2013-07-23 08:25:00,70.0,18.6,30.06,South,182,0.0,3.1,14,0.00,,---,0.00,VWS V14.01,2013-07-23 14:25:00,
2013-07-23 08:28:00,70.3,18.9,30.06,South,182,0.0,3.1,14,0.00,,---,0.00,VWS V14.01,2013-07-23 14:28:00,
2013-07-23 08:29:00,70.3,15.4,30.06,South,182,0.0,3.1,12,0.00,,---,0.00,VWS V14.01,2013-07-23 14:29:00,
2013-07-23 08:30:00,70.5,19.1,30.06,North,9,3.1,3.6,14,0.00,,---,0.00,VWS V14.01,2013-07-23 14:30:00,
2013-07-23 08:33:00,70.3,18.9,30.06,NNW,328,2.7,3.6,14,0.00,,---,0.00,VWS V14.01,2013-07-23 14:33:00,
2013-07-23 08:34:00,70.3,15.4,30.06,WNW,302,3.1,3.6,12,0.00,,---,0.00,VWS V14.01,2013-07-23 14:34:00,
2013-07-23 08:35:00,70.3,15.4,30.06,WNW,302,2.2,3.6,12,0.00,,---,0.00,VWS V14.01,2013-07-23 14:35:00,
2013-07-23 08:38:00,70.5,15.5,30.06,NW,313,0.0,3.6,12,0.00,,---,0.00,VWS V14.01,2013-07-23 14:38:00,
2013-07-23 08:39:00,70.7,15.6,30.06,NW,313,2.7,3.6,12,0.00,,---,0.00,VWS V14.01,2013-07-23 14:39:00,
2013-07-23 08:40:00,70.9,15.8,30.06,NW,313,0.0,3.6,12,0.00,,---,0.00,VWS V14.01,2013-07-23 14:40:00,
2013-07-23 08:43:00,71.2,16.1,30.06,NW,313,2.2,3.6,12,0.00,,---,0.00,VWS V14.01,2013-07-23 14:43:00,
2013-07-23 08:44:00,71.4,16.2,30.06,NNW,329,2.7,3.6,12,0.00,,---,0.00,VWS V14.01,2013-07-23 14:44:00,
2013-07-23 08:45:00,71.6,14.4,30.06,NW,325,2.7,2.7,11,0.00,,---,0.00,VWS V14.01,2013-07-23 14:45:00,
2013-07-23 08:48:00,72.0,14.6,30.06,NW,325,0.0,2.7,11,0.00,,---,0.00,VWS V14.01,2013-07-23 14:48:00,
2013-07-23 08:49:00,72.0,14.6,30.06,NW,325,0.0,2.7,11,0.00,,---,0.00,VWS V14.01,2013-07-23 14:49:00,
2013-07-23 08:50:00,72.0,14.6,30.06,SSW,193,2.7,3.1,11,0.00,,---,0.00,VWS V14.01,2013-07-23 14:50:00,
2013-07-23 08:51:00,72.1,14.8,30.06,West,273,2.7,3.6,11,0.00,,---,0.00,VWS V14.01,2013-07-23 14:51:00,
2013-07-23 08:54:00,72.5,15.0,30.06,WNW,292,2.7,3.6,11,0.00,,---,0.00,VWS V14.01,2013-07-23 14:54:00,
2013-07-23 08:55:00,72.7,15.2,30.06,WNW,297,2.7,3.6,11,0.00,,---,0.00,VWS V14.01,2013-07-23 14:55:00,
2013-07-23 08:56:00,72.9,15.3,30.06,WNW,297,0.0,3.6,11,0.00,,---,0.00,VWS V14.01,2013-07-23 14:56:00,
2013-07-23 08:59:00,73.2,15.6,30.06,NNW,335,3.6,4.0,11,0.00,,---,0.00,VWS V14.01,2013-07-23 14:59:00,
2013-07-23 09:00:00,73.2,15.6,30.06,North,0,4.0,4.0,11,0.00,,---,0.00,VWS V14.01,2013-07-23 15:00:00,
2013-07-23 09:01:00,73.4,15.7,30.06,NNE,14,4.0,5.8,11,0.00,,---,0.00,VWS V14.01,2013-07-23 15:01:00,
2013-07-23 09:04:00,73.0,15.5,30.06,North,353,4.0,5.8,11,0.00,,---,0.00,VWS V14.01,2013-07-23 15:04:00,
2013-07-23 09:05:00,72.7,15.2,30.06,North,357,3.6,5.8,11,0.00,,---,0.00,VWS V14.01,2013-07-23 15:05:00,
2013-07-23 09:06:00,72.5,15.0,30.06,North,3,3.1,5.8,11,0.00,,---,0.00,VWS V14.01,2013-07-23 15:06:00,
2013-07-23 09:07:00,72.3,14.9,30.06,North,3,2.7,5.8,11,0.00,,---,0.00,VWS V14.01,2013-07-23 15:07:00,
2013-07-23 09:09:00,72.3,14.9,30.06,North,357,3.6,5.8,11,0.00,,---,0.00,VWS V14.01,2013-07-23 15:09:00,
2013-07-23 09:10:00,72.3,14.9,30.06,North,1,3.6,5.8,11,0.00,,---,0.00,VWS V14.01,2013-07-23 15:10:00,
2013-07-23 09:11:00,72.3,14.9,30.06,NNE,21,4.0,5.8,11,0.00,,---,0.00,VWS V14.01,2013-07-23 15:11:00,
2013-07-23 09:12:00,72.3,14.9,30.06,NNE,21,3.1,5.8,11,0.00,,---,0.00,VWS V14.01,2013-07-23 15:12:00,
2013-07-23 09:14:00,72.5,15.0,30.09,North,9,4.0,5.8,11,0.00,,---,0.00,VWS V14.01,2013-07-23 15:14:00,
2013-07-23 09:15:00,72.7,15.2,30.09,North,3,3.6,5.8,11,0.00,,---,0.00,VWS V14.01,2013-07-23 15:15:00,
2013-07-23 09:17:00,73.0,15.5,30.09,North,8,4.0,4.0,11,0.00,,---,0.00,VWS V14.01,2013-07-23 15:17:00,
2013-07-23 09:19:00,73.8,16.0,30.09,North,9,2.2,4.0,11,0.00,,---,0.00,VWS V14.01,2013-07-23 15:19:00,
2013-07-23 09:20:00,74.1,16.3,30.09,North,9,2.7,4.0,11,0.00,,---,0.00,VWS V14.01,2013-07-23 15:20:00,
2013-07-23 09:22:00,74.5,16.6,30.09,North,8,3.6,4.0,11,0.00,,---,0.00,VWS V14.01,2013-07-23 15:22:00,
2013-07-23 09:25:00,74.8,16.9,30.09,NE,51,5.4,5.4,11,0.00,,---,0.00,VWS V14.01,2013-07-23 15:25:00,
2013-07-23 09:27:00,75.4,15.1,30.09,NNE,24,2.7,5.4,10,0.00,,---,0.00,VWS V14.01,2013-07-23 15:27:00,
2013-07-23 09:30:00,75.9,15.5,30.09,North,2,3.6,3.6,10,0.00,,---,0.00,VWS V14.01,2013-07-23 15:30:00,
2013-07-23 09:31:00,76.3,15.8,30.09,North,6,2.7,3.6,10,0.00,,---,0.00,VWS V14.01,2013-07-23 15:31:00,
2013-07-23 09:32:00,76.5,15.9,30.09,North,6,0.0,3.6,10,0.00,,---,0.00,VWS V14.01,2013-07-23 15:32:00,
2013-07-23 09:35:00,77.2,16.5,30.09,NNE,14,2.7,4.0,10,0.00,,---,0.00,VWS V14.01,2013-07-23 15:35:00,
2013-07-23 09:36:00,77.2,16.5,30.09,North,11,3.1,4.0,10,0.00,,---,0.00,VWS V14.01,2013-07-23 15:36:00,
2013-07-23 09:37:00,77.4,16.6,30.09,NE,34,4.0,4.9,10,0.00,,---,0.00,VWS V14.01,2013-07-23 15:37:00,
2013-07-23 09:40:00,77.5,16.7,30.09,North,0,3.1,5.8,10,0.00,,---,0.00,VWS V14.01,2013-07-23 15:40:00,
2013-07-23 09:42:00,77.5,16.7,30.09,NNE,19,2.7,5.8,10,0.00,,---,0.00,VWS V14.01,2013-07-23 15:42:00,
2013-07-23 09:43:00,77.5,16.7,30.09,NNE,28,2.7,5.8,10,0.00,,---,0.00,VWS V14.01,2013-07-23 15:43:00,
2013-07-23 09:45:00,77.4,16.6,30.09,ENE,62,2.7,2.7,10,0.00,,---,0.00,VWS V14.01,2013-07-23 15:45:00,
2013-07-23 09:47:00,77.5,16.7,30.09,NNE,33,3.1,3.6,10,0.00,,---,0.00,VWS V14.01,2013-07-23 15:47:00,
2013-07-23 09:48:00,77.5,16.7,30.09,North,3,6.3,6.3,10,0.00,,---,0.00,VWS V14.01,2013-07-23 15:48:00,
2013-07-23 09:50:00,77.2,16.5,30.09,North,349,3.6,7.6,10,0.00,,---,0.00,VWS V14.01,2013-07-23 15:50:00,
2013-07-23 09:51:00,77.0,16.3,30.09,North,3,6.3,7.6,10,0.00,,---,0.00,VWS V14.01,2013-07-23 15:51:00,
2013-07-23 09:52:00,76.8,16.2,30.09,NNE,14,3.6,7.6,10,0.00,,---,0.00,VWS V14.01,2013-07-23 15:52:00,
2013-07-23 09:53:00,76.8,16.2,30.09,NNE,23,5.8,7.6,10,0.00,,---,0.00,VWS V14.01,2013-07-23 15:53:00,
2013-07-23 09:55:00,76.6,16.0,30.09,NE,39,2.7,7.6,10,0.00,,---,0.00,VWS V14.01,2013-07-23 15:55:00,
2013-07-23 09:56:00,76.6,16.0,30.09,North,8,4.0,7.6,10,0.00,,---,0.00,VWS V14.01,2013-07-23 15:56:00,
2013-07-23 09:57:00,76.8,16.2,30.09,NNE,27,3.6,7.6,10,0.00,,---,0.00,VWS V14.01,2013-07-23 15:57:00,
2013-07-23 09:58:00,76.8,16.2,30.09,NNE,27,2.7,7.6,10,0.00,,---,0.00,VWS V14.01,2013-07-23 15:58:00,
2013-07-23 10:00:00,76.8,16.2,30.09,North,9,4.0,4.0,10,0.00,,---,0.00,VWS V14.01,2013-07-23 16:00:00,
2013-07-23 10:01:00,76.8,16.2,30.09,ENE,57,0.0,4.0,10,0.00,,---,0.00,VWS V14.01,2013-07-23 16:01:00,
2013-07-23 10:03:00,76.8,16.2,30.09,NNE,14,2.7,4.0,10,0.00,,---,0.00,VWS V14.01,2013-07-23 16:03:00,
2013-07-23 10:04:00,77.2,16.5,30.09,North,8,4.0,4.0,10,0.00,,---,0.00,VWS V14.01,2013-07-23 16:04:00,
2013-07-23 10:05:00,77.2,16.5,30.09,North,353,3.1,5.8,10,0.00,,---,0.00,VWS V14.01,2013-07-23 16:05:00,
2013-07-23 10:06:00,77.0,16.3,30.09,North,353,4.5,5.8,10,0.00,,---,0.00,VWS V14.01,2013-07-23 16:06:00,
2013-07-23 10:08:00,76.8,16.2,30.09,NNE,12,5.4,5.8,10,0.00,,---,0.00,VWS V14.01,2013-07-23 16:08:00,
2013-07-23 10:09:00,76.8,16.2,30.09,NE,45,2.7,5.8,10,0.00,,---,0.00,VWS V14.01,2013-07-23 16:09:00,
2013-07-23 10:11:00,76.8,16.2,30.09,North,1,5.8,5.8,10,0.00,,---,0.00,VWS V14.01,2013-07-23 16:11:00,
2013-07-23 10:12:00,77.0,16.3,30.09,North,7,3.1,5.8,10,0.00,,---,0.00,VWS V14.01,2013-07-23 16:12:00,
2013-07-23 10:13:00,77.0,16.3,30.09,North,8,4.5,5.8,10,0.00,,---,0.00,VWS V14.01,2013-07-23 16:13:00,
2013-07-23 10:14:00,77.0,16.3,30.09,North,353,4.9,5.8,10,0.00,,---,0.00,VWS V14.01,2013-07-23 16:14:00,
2013-07-23 10:16:00,77.0,16.3,30.09,North,7,2.7,4.9,10,0.00,,---,0.00,VWS V14.01,2013-07-23 16:16:00,
2013-07-23 10:17:00,76.8,16.2,30.09,ENE,65,3.1,4.9,10,0.00,,---,0.00,VWS V14.01,2013-07-23 16:17:00,
2013-07-23 10:18:00,76.8,11.1,30.09,NNE,27,3.6,4.9,8,0.00,,---,0.00,VWS V14.01,2013-07-23 16:18:00,
2013-07-23 10:19:00,76.8,16.2,30.09,North,11,3.1,4.9,10,0.00,,---,0.00,VWS V14.01,2013-07-23 16:19:00,
2013-07-23 10:21:00,77.0,16.3,30.09,North,357,3.1,5.4,10,0.00,,---,0.00,VWS V14.01,2013-07-23 16:21:00,
2013-07-23 10:22:00,77.0,16.3,30.09,North,11,5.8,5.8,10,0.00,,---,0.00,VWS V14.01,2013-07-23 16:22:00,
2013-07-23 10:23:00,77.0,16.3,30.09,NNE,15,2.2,5.8,10,0.00,,---,0.00,VWS V14.01,2013-07-23 16:23:00,
2013-07-23 10:24:00,77.2,11.4,30.09,NNE,22,2.7,5.8,8,0.00,,---,0.00,VWS V14.01,2013-07-23 16:24:00,
2013-07-23 10:26:00,77.2,16.5,30.09,NNE,27,3.6,5.8,10,0.00,,---,0.00,VWS V14.01,2013-07-23 16:26:00,
2013-07-23 10:27:00,77.4,16.6,30.09,North,357,4.0,5.8,10,0.00,,---,0.00,VWS V14.01,2013-07-23 16:27:00,
2013-07-23 10:28:00,77.5,16.7,30.09,North,8,2.7,5.8,10,0.00,,---,0.00,VWS V14.01,2013-07-23 16:28:00,
2013-07-23 10:29:00,77.7,16.9,30.09,North,357,4.0,5.8,10,0.00,,---,0.00,VWS V14.01,2013-07-23 16:29:00,
2013-07-23 10:31:00,78.3,17.3,30.09,North,353,4.0,4.9,10,0.00,,---,0.00,VWS V14.01,2013-07-23 16:31:00,
2013-07-23 10:32:00,78.3,17.3,30.09,North,1,5.4,5.4,10,0.00,,---,0.00,VWS V14.01,2013-07-23 16:32:00,
2013-07-23 10:33:00,78.3,12.2,30.09,North,10,5.8,5.8,8,0.00,,---,0.00,VWS V14.01,2013-07-23 16:33:00,
2013-07-23 10:34:00,78.3,12.2,30.09,NNE,15,5.4,5.8,8,0.00,,---,0.00,VWS V14.01,2013-07-23 16:34:00,
2013-07-23 10:37:00,77.9,11.9,30.09,North,4,3.1,5.8,8,0.00,,---,0.00,VWS V14.01,2013-07-23 16:37:00,
2013-07-23 10:38:00,77.9,11.9,30.09,North,3,4.0,5.8,8,0.00,,---,0.00,VWS V14.01,2013-07-23 16:38:00,
2013-07-23 10:39:00,78.1,17.1,30.09,North,8,3.6,5.8,10,0.00,,---,0.00,VWS V14.01,2013-07-23 16:39:00,
2013-07-23 10:42:00,78.3,17.3,30.09,NNE,15,4.0,5.8,10,0.00,,---,0.00,VWS V14.01,2013-07-23 16:42:00,
2013-07-23 10:43:00,78.3,12.2,30.09,NNE,18,3.6,6.3,8,0.00,,---,0.00,VWS V14.01,2013-07-23 16:43:00,
2013-07-23 10:45:00,78.3,12.2,30.09,NNE,25,5.8,6.3,8,0.00,,---,0.00,VWS V14.01,2013-07-23 16:45:00,
2013-07-23 10:47:00,77.7,11.8,30.09,NNE,25,5.4,5.4,8,0.00,,---,0.00,VWS V14.01,2013-07-23 16:47:00,
2013-07-23 10:49:00,77.4,11.5,30.09,North,10,4.0,5.8,8,0.00,,---,0.00,VWS V14.01,2013-07-23 16:49:00,
2013-07-23 10:50:00,77.2,11.4,30.09,North,4,2.7,5.8,8,0.00,,---,0.00,VWS V14.01,2013-07-23 16:50:00,
2013-07-23 10:52:00,77.4,11.5,30.09,West,279,3.6,5.8,8,0.00,,---,0.00,VWS V14.01,2013-07-23 16:52:00,
2013-07-23 10:54:00,77.9,11.9,30.09,North,2,6.3,6.3,8,0.00,,---,0.00,VWS V14.01,2013-07-23 16:54:00,
2013-07-23 10:55:00,77.7,11.8,30.09,NNE,18,3.6,7.6,8,0.00,,---,0.00,VWS V14.01,2013-07-23 16:55:00,
2013-07-23 10:57:00,77.4,11.5,30.09,ENE,64,2.2,7.6,8,0.00,,---,0.00,VWS V14.01,2013-07-23 16:57:00,
2013-07-23 10:59:00,77.5,11.6,30.09,NNW,335,4.0,7.6,8,0.00,,---,0.00,VWS V14.01,2013-07-23 16:59:00,
2013-07-23 11:01:00,77.7,11.8,30.09,NNE,31,5.4,5.4,8,0.00,,---,0.00,VWS V14.01,2013-07-23 17:01:00,
2013-07-23 11:02:00,77.7,11.8,30.09,North,10,3.6,5.4,8,0.00,,---,0.00,VWS V14.01,2013-07-23 17:02:00,
2013-07-23 11:03:00,77.7,11.8,30.09,North,8,3.1,5.4,8,0.00,,---,0.00,VWS V14.01,2013-07-23 17:03:00,
2013-07-23 11:04:00,77.5,16.7,30.09,NE,37,3.6,5.4,10,0.00,,---,0.00,VWS V14.01,2013-07-23 17:04:00,
2013-07-23 11:06:00,77.5,11.6,30.09,North,2,4.0,5.4,8,0.00,,---,0.00,VWS V14.01,2013-07-23 17:06:00,
2013-07-23 11:07:00,77.5,11.6,30.09,North,357,4.0,5.4,8,0.00,,---,0.00,VWS V14.01,2013-07-23 17:07:00,
2013-07-23 11:08:00,77.5,11.6,30.09,North,7,4.0,5.4,8,0.00,,---,0.00,VWS V14.01,2013-07-23 17:08:00,
2013-07-23 11:09:00,77.4,11.5,30.09,North,357,2.7,5.4,8,0.00,,---,0.00,VWS V14.01,2013-07-23 17:09:00,
2013-07-23 11:11:00,77.4,11.5,30.09,North,0,4.0,5.4,8,0.00,,---,0.00,VWS V14.01,2013-07-23 17:11:00,
2013-07-23 11:12:00,77.4,11.5,30.09,NNE,17,2.2,5.4,8,0.00,,---,0.00,VWS V14.01,2013-07-23 17:12:00,
2013-07-23 11:13:00,77.4,11.5,30.09,North,8,4.9,6.3,8,0.00,,---,0.00,VWS V14.01,2013-07-23 17:13:00,
2013-07-23 11:15:00,77.4,11.5,30.09,NNE,17,4.0,6.3,8,0.00,,---,0.00,VWS V14.01,2013-07-23 17:15:00,
2013-07-23 11:16:00,77.2,11.4,30.09,North,357,2.7,6.3,8,0.00,,---,0.00,VWS V14.01,2013-07-23 17:16:00,
2013-07-23 11:18:00,77.2,11.4,30.09,NNW,348,4.0,6.3,8,0.00,,---,0.00,VWS V14.01,2013-07-23 17:18:00,
2013-07-23 11:20:00,77.4,11.5,30.09,North,357,3.1,6.3,8,0.00,,---,0.00,VWS V14.01,2013-07-23 17:20:00,
2013-07-23 11:22:00,77.5,11.6,30.09,NNE,19,2.7,6.3,8,0.00,,---,0.00,VWS V14.01,2013-07-23 17:22:00,
2013-07-23 11:23:00,77.5,11.6,30.09,North,11,5.8,6.3,8,0.00,,---,0.00,VWS V14.01,2013-07-23 17:23:00,
2013-07-23 11:25:00,77.4,11.5,30.09,North,357,4.9,6.3,8,0.00,,---,0.00,VWS V14.01,2013-07-23 17:25:00,
2013-07-23 11:27:00,77.5,11.6,30.09,North,357,2.7,6.3,8,0.00,,---,0.00,VWS V14.01,2013-07-23 17:27:00,
2013-07-23 11:28:00,77.7,11.8,30.09,North,357,3.1,6.3,8,0.00,,---,0.00,VWS V14.01,2013-07-23 17:28:00,
2013-07-23 11:30:00,78.1,12.0,30.09,North,4,3.6,6.3,8,0.00,,---,0.00,VWS V14.01,2013-07-23 17:30:00,
2013-07-23 11:32:00,78.1,12.0,30.09,NNE,22,2.7,3.6,8,0.00,,---,0.00,VWS V14.01,2013-07-23 17:32:00,
2013-07-23 11:33:00,78.3,12.2,30.09,North,2,2.7,3.6,8,0.00,,---,0.00,VWS V14.01,2013-07-23 17:33:00,
2013-07-23 11:35:00,78.6,12.4,30.09,NNE,18,4.0,4.0,8,0.00,,---,0.00,VWS V14.01,2013-07-23 17:35:00,
2013-07-23 11:36:00,78.6,12.4,30.09,NNE,27,3.6,4.0,8,0.00,,---,0.00,VWS V14.01,2013-07-23 17:36:00,
2013-07-23 11:37:00,78.6,12.4,30.09,ENE,64,3.1,4.0,8,0.00,,---,0.00,VWS V14.01,2013-07-23 17:37:00,
2013-07-23 11:38:00,78.6,12.4,30.09,ENE,76,2.7,4.0,8,0.00,,---,0.00,VWS V14.01,2013-07-23 17:38:00,
2013-07-23 11:40:00,78.8,9.6,30.09,North,7,5.8,5.8,7,0.00,,---,0.00,VWS V14.01,2013-07-23 17:40:00,
2013-07-23 11:41:00,78.8,9.6,30.09,NNE,32,4.9,5.8,7,0.00,,---,0.00,VWS V14.01,2013-07-23 17:41:00,
2013-07-23 11:42:00,78.8,9.6,30.09,North,10,4.0,5.8,7,0.00,,---,0.00,VWS V14.01,2013-07-23 17:42:00,
2013-07-23 11:44:00,78.8,9.6,30.09,NNE,17,4.0,5.8,7,0.00,,---,0.00,VWS V14.01,2013-07-23 17:44:00,
2013-07-23 11:46:00,79.2,9.8,30.09,ESE,102,4.0,4.9,7,0.00,,---,0.00,VWS V14.01,2013-07-23 17:46:00,
2013-07-23 11:47:00,79.3,10.0,30.09,ESE,106,5.8,5.8,7,0.00,,---,0.00,VWS V14.01,2013-07-23 17:47:00,
2013-07-23 11:50:00,79.7,10.2,30.09,North,8,5.8,6.3,7,0.00,,---,0.00,VWS V14.01,2013-07-23 17:50:00,
2013-07-23 11:52:00,79.2,9.8,30.09,North,4,3.6,6.3,7,0.00,,---,0.00,VWS V14.01,2013-07-23 17:52:00,
2013-07-23 11:56:00,79.3,10.0,30.09,NNE,25,3.6,6.3,7,0.00,,---,0.00,VWS V14.01,2013-07-23 17:56:00,
2013-07-23 11:57:00,79.5,10.1,30.09,North,8,2.7,6.3,7,0.00,,---,0.00,VWS V14.01,2013-07-23 17:57:00,
2013-07-23 11:59:00,79.9,10.4,30.09,North,353,4.0,6.3,7,0.00,,---,0.00,VWS V14.01,2013-07-23 17:59:00,
2013-07-23 12:02:00,79.9,10.4,30.09,NE,38,2.7,5.8,7,0.00,,---,0.00,VWS V14.01,2013-07-23 18:02:00,
2013-07-23 12:04:00,79.9,10.4,30.09,NE,36,4.9,6.3,7,0.00,,---,0.00,VWS V14.01,2013-07-23 18:04:00,
2013-07-23 12:07:00,79.2,9.8,30.09,East,90,2.7,6.3,7,0.00,,---,0.00,VWS V14.01,2013-07-23 18:07:00,
2013-07-23 12:10:00,79.0,9.7,30.09,NNE,28,4.5,6.3,7,0.00,,---,0.00,VWS V14.01,2013-07-23 18:10:00,
2013-07-23 12:12:00,79.2,9.8,30.09,North,10,5.8,6.3,7,0.00,,---,0.00,VWS V14.01,2013-07-23 18:12:00,
2013-07-23 12:14:00,79.2,9.8,30.09,NE,37,5.4,6.3,7,0.00,,---,0.00,VWS V14.01,2013-07-23 18:14:00,
2013-07-23 12:15:00,79.3,10.0,30.09,North,5,4.0,6.3,7,0.00,,---,0.00,VWS V14.01,2013-07-23 18:15:00,
2013-07-23 12:17:00,79.3,10.0,30.09,NNE,23,3.6,5.8,7,0.00,,---,0.00,VWS V14.01,2013-07-23 18:17:00,
2013-07-23 12:18:00,79.3,10.0,30.09,NNE,16,4.9,5.8,7,0.00,,---,0.00,VWS V14.01,2013-07-23 18:18:00,
2013-07-23 12:19:00,79.5,10.1,30.09,NNE,12,4.0,5.8,7,0.00,,---,0.00,VWS V14.01,2013-07-23 18:19:00,
2013-07-23 12:21:00,79.5,10.1,30.09,North,357,6.3,6.3,7,0.00,,---,0.00,VWS V14.01,2013-07-23 18:21:00,
2013-07-23 12:22:00,79.7,10.2,30.09,NNE,24,4.9,7.6,7,0.00,,---,0.00,VWS V14.01,2013-07-23 18:22:00,
2013-07-23 12:23:00,79.7,10.2,30.09,North,9,3.1,7.6,7,0.00,,---,0.00,VWS V14.01,2013-07-23 18:23:00,
2013-07-23 12:24:00,79.7,10.2,30.09,North,9,3.1,7.6,7,0.00,,---,0.00,VWS V14.01,2013-07-23 18:24:00,
2013-07-23 12:26:00,79.9,10.4,30.09,North,6,5.4,7.6,7,0.00,,---,0.00,VWS V14.01,2013-07-23 18:26:00,
2013-07-23 12:28:00,79.5,10.1,30.09,NNE,13,4.0,7.6,7,0.00,,---,0.00,VWS V14.01,2013-07-23 18:28:00,
2013-07-23 12:29:00,79.5,10.1,30.09,NNE,16,5.4,7.6,7,0.00,,---,0.00,VWS V14.01,2013-07-23 18:29:00,
2013-07-23 12:31:00,79.3,10.0,30.09,North,0,4.5,6.3,7,0.00,,---,0.00,VWS V14.01,2013-07-23 18:31:00,
2013-07-23 12:34:00,79.7,10.2,30.09,NNE,30,6.3,6.3,7,0.00,,---,0.00,VWS V14.01,2013-07-23 18:34:00,
2013-07-23 12:37:00,79.9,10.4,30.09,North,5,3.6,6.3,7,0.00,,---,0.00,VWS V14.01,2013-07-23 18:37:00,
2013-07-23 12:39:00,80.2,10.6,30.09,North,5,2.2,6.3,7,0.00,,---,0.00,VWS V14.01,2013-07-23 18:39:00,
2013-07-23 12:42:00,80.6,10.9,30.09,North,357,5.4,6.3,7,0.00,,---,0.00,VWS V14.01,2013-07-23 18:42:00,
2013-07-23 12:44:00,80.6,10.9,30.09,ENE,76,0.0,8.1,7,0.00,,---,0.00,VWS V14.01,2013-07-23 18:44:00,
2013-07-23 12:45:00,80.6,10.9,30.09,NNE,17,2.7,8.1,7,0.00,,---,0.00,VWS V14.01,2013-07-23 18:45:00,
2013-07-23 12:48:00,80.6,10.9,30.09,NNE,18,8.7,8.7,7,0.00,,---,0.00,VWS V14.01,2013-07-23 18:48:00,
2013-07-23 12:49:00,80.6,10.9,30.09,NNE,19,6.3,8.7,7,0.00,,---,0.00,VWS V14.01,2013-07-23 18:49:00,
2013-07-23 12:50:00,80.8,11.0,30.09,NNE,23,8.1,8.7,7,0.00,,---,0.00,VWS V14.01,2013-07-23 18:50:00,
2013-07-23 12:53:00,80.8,11.0,30.09,North,0,5.4,8.7,7,0.00,,---,0.00,VWS V14.01,2013-07-23 18:53:00,
2013-07-23 12:54:00,80.8,11.0,30.09,North,0,6.3,8.7,7,0.00,,---,0.00,VWS V14.01,2013-07-23 18:54:00,
2013-07-23 12:55:00,80.8,11.0,30.09,NNE,32,5.4,8.7,7,0.00,,---,0.00,VWS V14.01,2013-07-23 18:55:00,
2013-07-23 12:56:00,80.8,11.0,30.09,NNE,20,4.9,8.7,7,0.00,,---,0.00,VWS V14.01,2013-07-23 18:56:00,
2013-07-23 12:58:00,81.0,11.2,30.09,North,3,5.8,8.7,7,0.00,,---,0.00,VWS V14.01,2013-07-23 18:58:00,
2013-07-23 12:59:00,81.3,11.4,30.09,NNE,23,3.6,8.7,7,0.00,,---,0.00,VWS V14.01,2013-07-23 18:59:00,
2013-07-23 13:01:00,81.5,11.6,30.09,North,3,5.8,8.3,7,0.00,,---,0.00,VWS V14.01,2013-07-23 19:01:00,
2013-07-23 13:04:00,81.7,11.7,30.09,North,357,4.9,8.3,7,0.00,,---,0.00,VWS V14.01,2013-07-23 19:04:00,
2013-07-23 13:06:00,81.5,11.6,30.09,ENE,74,2.2,8.3,7,0.00,,---,0.00,VWS V14.01,2013-07-23 19:06:00,
2013-07-23 13:07:00,81.3,11.4,30.09,East,90,2.2,8.3,7,0.00,,---,0.00,VWS V14.01,2013-07-23 19:07:00,
2013-07-23 13:10:00,81.3,11.4,30.09,NNW,332,6.3,8.3,7,0.00,,---,0.00,VWS V14.01,2013-07-23 19:10:00,
2013-07-23 13:11:00,81.3,11.4,30.09,North,357,7.2,8.3,7,0.00,,---,0.00,VWS V14.01,2013-07-23 19:11:00,
2013-07-23 13:12:00,81.5,11.6,30.09,North,353,5.8,8.3,7,0.00,,---,0.00,VWS V14.01,2013-07-23 19:12:00,
2013-07-23 13:13:00,81.7,11.7,30.09,NNW,341,5.4,8.3,7,0.00,,---,0.00,VWS V14.01,2013-07-23 19:13:00,
2013-07-23 13:16:00,81.3,11.4,30.09,NNE,12,3.1,4.0,7,0.00,,---,0.00,VWS V14.01,2013-07-23 19:16:00,
2013-07-23 13:17:00,81.1,11.3,30.09,NNW,346,3.6,4.9,7,0.00,,---,0.00,VWS V14.01,2013-07-23 19:17:00,
2013-07-23 13:18:00,81.3,11.4,30.09,NNW,345,3.1,4.9,7,0.00,,---,0.00,VWS V14.01,2013-07-23 19:18:00,
2013-07-23 13:21:00,81.9,11.8,30.09,North,0,5.8,8.7,7,0.00,,---,0.00,VWS V14.01,2013-07-23 19:21:00,
2013-07-23 13:22:00,81.9,11.8,30.09,North,0,3.6,8.7,7,0.00,,---,0.00,VWS V14.01,2013-07-23 19:22:00,
2013-07-23 13:23:00,81.9,11.8,30.09,North,11,3.1,8.7,7,0.00,,---,0.00,VWS V14.01,2013-07-23 19:23:00,
2013-07-23 13:24:00,81.9,11.8,30.09,NNE,20,4.0,8.7,7,0.00,,---,0.00,VWS V14.01,2013-07-23 19:24:00,
2013-07-23 13:26:00,81.9,11.8,30.09,NNE,24,4.0,8.7,7,0.00,,---,0.00,VWS V14.01,2013-07-23 19:26:00,
2013-07-23 13:28:00,81.9,11.8,30.09,NE,36,0.0,8.7,7,0.00,,---,0.00,VWS V14.01,2013-07-23 19:28:00,
2013-07-23 13:29:00,81.9,11.8,30.09,West,276,3.6,8.7,7,0.00,,---,0.00,VWS V14.01,2013-07-23 19:29:00,
2013-07-23 13:31:00,82.2,12.1,30.09,North,0,3.6,4.0,7,0.00,,---,0.00,VWS V14.01,2013-07-23 19:31:00,
2013-07-23 13:33:00,82.4,8.8,30.09,NNW,346,3.6,5.8,6,0.00,,---,0.00,VWS V14.01,2013-07-23 19:33:00,
2013-07-23 13:34:00,82.4,8.8,30.09,North,8,4.0,5.8,6,0.00,,---,0.00,VWS V14.01,2013-07-23 19:34:00,
2013-07-23 13:37:00,82.0,11.9,30.09,NE,35,3.6,7.2,7,0.00,,---,0.00,VWS V14.01,2013-07-23 19:37:00,
2013-07-23 13:39:00,82.0,11.9,30.09,North,353,4.9,7.2,7,0.00,,---,0.00,VWS V14.01,2013-07-23 19:39:00,
2013-07-23 13:40:00,82.2,12.1,30.09,North,0,5.4,7.2,7,0.00,,---,0.00,VWS V14.01,2013-07-23 19:40:00,
2013-07-23 13:42:00,82.2,12.1,30.09,NNE,18,4.0,8.1,7,0.00,,---,0.00,VWS V14.01,2013-07-23 19:42:00,
2013-07-23 13:45:00,82.2,12.1,30.09,North,349,3.1,8.1,7,0.00,,---,0.00,VWS V14.01,2013-07-23 19:45:00,
2013-07-23 13:46:00,82.0,11.9,30.09,NNW,339,3.1,3.1,7,0.00,,---,0.00,VWS V14.01,2013-07-23 19:46:00,
2013-07-23 13:49:00,82.6,8.9,30.09,North,357,3.1,3.6,6,0.00,,---,0.00,VWS V14.01,2013-07-23 19:49:00,
2013-07-23 13:50:00,82.8,9.0,30.09,North,6,6.7,7.6,6,0.00,,---,0.00,VWS V14.01,2013-07-23 19:50:00,
2013-07-23 13:51:00,82.8,9.0,30.09,NNE,15,3.6,7.6,6,0.00,,---,0.00,VWS V14.01,2013-07-23 19:51:00,
2013-07-23 13:52:00,82.8,9.0,30.09,NNE,30,2.7,7.6,6,0.00,,---,0.00,VWS V14.01,2013-07-23 19:52:00,
2013-07-23 13:55:00,83.1,9.3,30.09,North,8,4.0,7.6,6,0.00,,---,0.00,VWS V14.01,2013-07-23 19:55:00,
2013-07-23 13:57:00,83.1,9.3,30.09,North,353,4.0,7.6,6,0.00,,---,0.00,VWS V14.01,2013-07-23 19:57:00,
2013-07-23 13:58:00,83.1,9.3,30.09,North,6,0.0,7.6,6,0.00,,---,0.00,VWS V14.01,2013-07-23 19:58:00,
2013-07-23 14:01:00,83.5,9.5,30.09,NW,307,3.1,4.0,6,0.00,,---,0.00,VWS V14.01,2013-07-23 20:01:00,
2013-07-23 14:02:00,83.5,9.5,30.09,North,1,2.7,4.0,6,0.00,,---,0.00,VWS V14.01,2013-07-23 20:02:00,
2013-07-23 14:03:00,83.5,9.5,30.09,North,357,4.9,5.4,6,0.00,,---,0.00,VWS V14.01,2013-07-23 20:03:00,
2013-07-23 14:06:00,83.3,9.4,30.09,North,9,4.0,5.8,6,0.00,,---,0.00,VWS V14.01,2013-07-23 20:06:00,
2013-07-23 14:08:00,83.3,9.4,30.09,SW,229,2.7,6.3,6,0.00,,---,0.00,VWS V14.01,2013-07-23 20:08:00,
2013-07-23 14:09:00,83.3,9.4,30.09,WNW,302,4.0,6.3,6,0.00,,---,0.00,VWS V14.01,2013-07-23 20:09:00,
2013-07-23 14:11:00,83.7,9.7,30.09,North,4,5.4,6.3,6,0.00,,---,0.00,VWS V14.01,2013-07-23 20:11:00,
2013-07-23 14:13:00,83.8,9.8,30.06,NW,316,2.7,6.3,6,0.00,,---,0.00,VWS V14.01,2013-07-23 20:13:00,
2013-07-23 14:15:00,83.8,9.8,30.06,NNW,337,3.6,6.3,6,0.00,,---,0.00,VWS V14.01,2013-07-23 20:15:00,
2013-07-23 14:16:00,83.7,9.7,30.06,ENE,77,4.0,6.3,6,0.00,,---,0.00,VWS V14.01,2013-07-23 20:16:00,
2013-07-23 14:18:00,83.3,9.4,30.06,SSW,208,4.0,6.3,6,0.00,,---,0.00,VWS V14.01,2013-07-23 20:18:00,
2013-07-23 14:19:00,83.1,9.3,30.06,SSE,165,4.0,6.3,6,0.00,,---,0.00,VWS V14.01,2013-07-23 20:19:00,
2013-07-23 14:20:00,83.1,9.3,30.06,SSE,165,4.0,6.3,6,0.00,,---,0.00,VWS V14.01,2013-07-23 20:20:00,
2013-07-23 14:22:00,83.1,9.3,30.06,South,185,0.0,6.3,6,0.00,,---,0.00,VWS V14.01,2013-07-23 20:22:00,
2013-07-23 14:24:00,83.1,9.3,30.06,North,11,3.1,6.3,6,0.00,,---,0.00,VWS V14.01,2013-07-23 20:24:00,
2013-07-23 14:25:00,82.9,9.1,30.06,North,3,4.9,6.3,6,0.00,,---,0.00,VWS V14.01,2013-07-23 20:25:00,
2013-07-23 14:27:00,83.1,9.3,30.09,North,5,3.1,6.3,6,0.00,,---,0.00,VWS V14.01,2013-07-23 20:27:00,
2013-07-23 14:29:00,83.1,9.3,30.09,NNE,18,6.3,6.3,6,0.00,,---,0.00,VWS V14.01,2013-07-23 20:29:00,
2013-07-23 14:30:00,83.1,9.3,30.09,NNE,21,5.4,6.3,6,0.00,,---,0.00,VWS V14.01,2013-07-23 20:30:00,
2013-07-23 14:32:00,83.1,9.3,30.09,NE,35,3.6,6.7,6,0.00,,---,0.00,VWS V14.01,2013-07-23 20:32:00,
2013-07-23 14:34:00,83.3,9.4,30.09,NNE,22,4.0,6.7,6,0.00,,---,0.00,VWS V14.01,2013-07-23 20:34:00,
2013-07-23 14:35:00,83.3,9.4,30.09,North,0,5.4,6.7,6,0.00,,---,0.00,VWS V14.01,2013-07-23 20:35:00,
2013-07-23 14:36:00,83.3,9.4,30.09,North,353,5.4,6.7,6,0.00,,---,0.00,VWS V14.01,2013-07-23 20:36:00,
2013-07-23 14:38:00,83.1,9.3,30.09,NNW,341,2.7,6.7,6,0.00,,---,0.00,VWS V14.01,2013-07-23 20:38:00,
2013-07-23 14:40:00,83.3,9.4,30.09,SSW,196,2.7,7.6,6,0.00,,---,0.00,VWS V14.01,2013-07-23 20:40:00,
2013-07-23 14:41:00,83.3,9.4,30.09,SSW,202,2.7,7.6,6,0.00,,---,0.00,VWS V14.01,2013-07-23 20:41:00,
2013-07-23 14:42:00,83.5,9.5,30.09,North,357,5.4,7.6,6,0.00,,---,0.00,VWS V14.01,2013-07-23 20:42:00,
2013-07-23 14:43:00,83.5,9.5,30.09,North,357,0.0,7.6,6,0.00,,---,0.00,VWS V14.01,2013-07-23 20:43:00,
2013-07-23 14:45:00,83.5,9.5,30.09,NNW,340,2.7,7.6,6,0.00,,---,0.00,VWS V14.01,2013-07-23 20:45:00,
2013-07-23 14:47:00,83.5,9.5,30.09,NW,309,2.7,4.5,6,0.00,,---,0.00,VWS V14.01,2013-07-23 20:47:00,
2013-07-23 14:48:00,83.7,9.7,30.09,WNW,301,2.7,5.8,6,0.00,,---,0.00,VWS V14.01,2013-07-23 20:48:00,
2013-07-23 14:50:00,83.8,9.8,30.09,East,79,0.0,5.8,6,0.00,,---,0.00,VWS V14.01,2013-07-23 20:50:00,
2013-07-23 14:52:00,83.7,9.7,30.09,South,189,2.7,5.8,6,0.00,,---,0.00,VWS V14.01,2013-07-23 20:52:00,
2013-07-23 14:53:00,83.7,9.7,30.09,South,177,0.0,5.8,6,0.00,,---,0.00,VWS V14.01,2013-07-23 20:53:00,
2013-07-23 14:56:00,84.2,10.1,30.09,NW,311,3.6,5.8,6,0.00,,---,0.00,VWS V14.01,2013-07-23 20:56:00,
2013-07-23 14:57:00,84.2,10.1,30.09,NNE,22,7.6,7.6,6,0.00,,---,0.00,VWS V14.01,2013-07-23 20:57:00,
2013-07-23 14:58:00,84.2,10.1,30.09,NNE,19,5.4,7.6,6,0.00,,---,0.00,VWS V14.01,2013-07-23 20:58:00,
2013-07-23 15:01:00,84.0,9.9,30.09,NW,324,3.1,7.6,6,0.00,,---,0.00,VWS V14.01,2013-07-23 21:01:00,
2013-07-23 15:02:00,84.0,9.9,30.09,NNE,18,3.1,7.6,6,0.00,,---,0.00,VWS V14.01,2013-07-23 21:02:00,
2013-07-23 15:04:00,83.8,9.8,30.09,NNE,14,5.4,7.6,6,0.00,,---,0.00,VWS V14.01,2013-07-23 21:04:00,
2013-07-23 15:06:00,84.0,9.9,30.09,North,357,3.6,7.6,6,0.00,,---,0.00,VWS V14.01,2013-07-23 21:06:00,
2013-07-23 15:09:00,84.0,9.9,30.09,NNW,344,5.8,7.6,6,0.00,,---,0.00,VWS V14.01,2013-07-23 21:09:00,
2013-07-23 15:12:00,84.0,9.9,30.09,NNE,21,3.1,7.6,6,0.00,,---,0.00,VWS V14.01,2013-07-23 21:12:00,
2013-07-23 15:14:00,84.2,10.1,30.09,North,10,5.8,7.6,6,0.00,,---,0.00,VWS V14.01,2013-07-23 21:14:00,
2013-07-23 15:15:00,84.4,10.2,30.09,NNE,26,4.0,7.6,6,0.00,,---,0.00,VWS V14.01,2013-07-23 21:15:00,
2013-07-23 15:17:00,84.6,10.3,30.09,NE,50,2.7,4.0,6,0.00,,---,0.00,VWS V14.01,2013-07-23 21:17:00,
2013-07-23 15:20:00,84.4,10.2,30.09,North,357,4.9,7.6,6,0.00,,---,0.00,VWS V14.01,2013-07-23 21:20:00,
2013-07-23 15:22:00,84.0,9.9,30.09,NE,46,0.0,7.6,6,0.00,,---,0.00,VWS V14.01,2013-07-23 21:22:00,
2013-07-23 15:25:00,84.0,9.9,30.09,SE,129,0.0,7.6,6,0.00,,---,0.00,VWS V14.01,2013-07-23 21:25:00,
2013-07-23 15:27:00,84.2,10.1,30.09,ESE,113,3.1,7.6,6,0.00,,---,0.00,VWS V14.01,2013-07-23 21:27:00,
2013-07-23 15:30:00,84.9,10.6,30.09,North,4,0.0,7.6,6,0.00,,---,0.00,VWS V14.01,2013-07-23 21:30:00,
2013-07-23 15:31:00,85.1,10.7,30.09,NE,47,4.0,4.0,6,0.00,,---,0.00,VWS V14.01,2013-07-23 21:31:00,
2013-07-23 15:32:00,85.1,10.7,30.09,NE,47,2.7,4.0,6,0.00,,---,0.00,VWS V14.01,2013-07-23 21:32:00,
2013-07-23 15:35:00,85.6,11.1,30.09,NNE,30,4.0,4.5,6,0.00,,---,0.00,VWS V14.01,2013-07-23 21:35:00,
2013-07-23 15:36:00,85.6,11.1,30.09,North,357,2.7,4.5,6,0.00,,---,0.00,VWS V14.01,2013-07-23 21:36:00,
2013-07-23 15:38:00,85.8,11.2,30.09,North,357,5.4,5.8,6,0.00,,---,0.00,VWS V14.01,2013-07-23 21:38:00,
2013-07-23 15:41:00,85.6,11.1,30.09,North,357,4.9,5.8,6,0.00,,---,0.00,VWS V14.01,2013-07-23 21:41:00,
2013-07-23 15:42:00,85.6,11.1,30.09,North,357,4.9,5.8,6,0.00,,---,0.00,VWS V14.01,2013-07-23 21:42:00,
2013-07-23 15:44:00,85.8,11.2,30.09,North,9,5.8,5.8,6,0.00,,---,0.00,VWS V14.01,2013-07-23 21:44:00,
2013-07-23 15:47:00,85.6,11.1,30.09,NNW,338,6.3,6.3,6,0.00,,---,0.00,VWS V14.01,2013-07-23 21:47:00,
2013-07-23 15:49:00,85.6,11.1,30.09,North,0,3.6,6.7,6,0.00,,---,0.00,VWS V14.01,2013-07-23 21:49:00,
2013-07-23 15:50:00,85.6,11.1,30.09,North,0,5.4,6.7,6,0.00,,---,0.00,VWS V14.01,2013-07-23 21:50:00,
2013-07-23 15:52:00,85.8,11.2,30.09,WNW,288,2.2,6.7,6,0.00,,---,0.00,VWS V14.01,2013-07-23 21:52:00,
2013-07-23 15:53:00,86.0,11.4,30.09,NNW,341,6.3,6.7,6,0.00,,---,0.00,VWS V14.01,2013-07-23 21:53:00,
2013-07-23 15:55:00,86.2,11.5,30.09,NNE,25,4.9,6.7,6,0.00,,---,0.00,VWS V14.01,2013-07-23 21:55:00,
2013-07-23 15:57:00,86.2,11.5,30.09,NNE,29,3.1,6.7,6,0.00,,---,0.00,VWS V14.01,2013-07-23 21:57:00,
2013-07-23 15:59:00,85.8,11.2,30.09,NNE,29,3.1,6.7,6,0.00,,---,0.00,VWS V14.01,2013-07-23 21:59:00,
2013-07-23 16:00:00,85.6,11.1,30.09,NNE,16,0.0,3.6,6,0.00,,---,0.00,VWS V14.01,2013-07-23 22:00:00,
2013-07-23 16:02:00,85.5,11.0,30.09,ENE,71,2.7,3.6,6,0.00,,---,0.00,VWS V14.01,2013-07-23 22:02:00,
2013-07-23 16:04:00,85.3,10.8,30.09,WSW,253,2.7,3.6,6,0.00,,---,0.00,VWS V14.01,2013-07-23 22:04:00,
2013-07-23 16:06:00,85.5,11.0,30.09,SE,127,0.0,4.0,6,0.00,,---,0.00,VWS V14.01,2013-07-23 22:06:00,
2013-07-23 16:07:00,85.5,11.0,30.09,East,84,2.7,4.0,6,0.00,,---,0.00,VWS V14.01,2013-07-23 22:07:00,
2013-07-23 16:09:00,85.8,11.2,30.09,North,11,3.1,4.0,6,0.00,,---,0.00,VWS V14.01,2013-07-23 22:09:00,
2013-07-23 16:12:00,86.2,11.5,30.09,ENE,76,0.0,5.4,6,0.00,,---,0.00,VWS V14.01,2013-07-23 22:12:00,
2013-07-23 16:13:00,86.2,11.5,30.06,NE,49,2.2,5.4,6,0.00,,---,0.00,VWS V14.01,2013-07-23 22:13:00,
2013-07-23 16:14:00,86.2,11.5,30.06,ENE,77,2.7,5.4,6,0.00,,---,0.00,VWS V14.01,2013-07-23 22:14:00,
2013-07-23 16:17:00,86.2,11.5,30.06,NE,43,6.3,6.3,6,0.00,,---,0.00,VWS V14.01,2013-07-23 22:17:00,
2013-07-23 16:18:00,86.2,11.5,30.06,NE,39,5.4,6.3,6,0.00,,---,0.00,VWS V14.01,2013-07-23 22:18:00,
2013-07-23 16:19:00,86.4,11.6,30.06,North,357,6.3,10.1,6,0.00,,---,0.00,VWS V14.01,2013-07-23 22:19:00,
2013-07-23 16:23:00,86.5,11.7,30.06,NNW,339,4.0,10.1,6,0.00,,---,0.00,VWS V14.01,2013-07-23 22:23:00,
2013-07-23 16:25:00,86.9,12.0,30.06,NNE,16,3.1,10.1,6,0.00,,---,0.00,VWS V14.01,2013-07-23 22:25:00,
2013-07-23 16:28:00,86.9,12.0,30.06,NE,38,8.3,10.1,6,0.00,,---,0.00,VWS V14.01,2013-07-23 22:28:00,
2013-07-23 16:30:00,86.7,11.9,30.06,NNE,16,5.8,7.2,6,0.00,,---,0.00,VWS V14.01,2013-07-23 22:30:00,
2013-07-23 16:33:00,86.4,11.6,30.06,North,357,5.4,7.2,6,0.00,,---,0.00,VWS V14.01,2013-07-23 22:33:00,
2013-07-23 16:34:00,86.4,11.6,30.06,North,357,5.4,7.2,6,0.00,,---,0.00,VWS V14.01,2013-07-23 22:34:00,
2013-07-23 16:36:00,86.4,11.6,30.06,North,357,6.3,8.1,6,0.00,,---,0.00,VWS V14.01,2013-07-23 22:36:00,
2013-07-23 16:39:00,86.2,11.5,30.06,WSW,257,4.9,8.1,6,0.00,,---,0.00,VWS V14.01,2013-07-23 22:39:00,
2013-07-23 16:41:00,86.5,11.7,30.06,SSE,164,0.0,8.1,6,0.00,,---,0.00,VWS V14.01,2013-07-23 22:41:00,
2013-07-23 16:44:00,86.9,12.0,30.06,NNE,19,3.1,8.1,6,0.00,,---,0.00,VWS V14.01,2013-07-23 22:44:00,
2013-07-23 16:46:00,86.9,12.0,30.06,NE,37,2.2,2.7,6,0.00,,---,0.00,VWS V14.01,2013-07-23 22:46:00,
2013-07-23 16:47:00,87.1,12.1,30.06,ESE,117,2.7,2.7,6,0.00,,---,0.00,VWS V14.01,2013-07-23 22:47:00,
2013-07-23 16:49:00,87.1,12.1,30.06,ENE,57,4.0,4.0,6,0.00,,---,0.00,VWS V14.01,2013-07-23 22:49:00,
2013-07-23 16:51:00,87.4,12.4,30.06,ESE,109,3.1,4.0,6,0.00,,---,0.00,VWS V14.01,2013-07-23 22:51:00,
2013-07-23 16:52:00,87.6,12.5,30.06,East,99,3.6,4.0,6,0.00,,---,0.00,VWS V14.01,2013-07-23 22:52:00,
2013-07-23 16:53:00,87.6,12.5,30.06,ESE,118,3.6,4.0,6,0.00,,---,0.00,VWS V14.01,2013-07-23 22:53:00,
2013-07-23 16:55:00,87.8,8.6,30.06,NNE,18,3.6,4.0,5,0.00,,---,0.00,VWS V14.01,2013-07-23 22:55:00,
2013-07-23 16:56:00,88.0,8.7,30.06,NNE,12,4.0,6.3,5,0.00,,---,0.00,VWS V14.01,2013-07-23 22:56:00,
2013-07-23 16:57:00,87.8,8.6,30.06,NNE,15,0.0,6.3,5,0.00,,---,0.00,VWS V14.01,2013-07-23 22:57:00,
2013-07-23 16:59:00,87.6,12.5,30.06,NNE,14,5.4,6.3,6,0.00,,---,0.00,VWS V14.01,2013-07-23 22:59:00,
2013-07-23 17:00:00,87.4,12.4,30.06,NW,324,3.6,6.3,6,0.00,,---,0.00,VWS V14.01,2013-07-23 23:00:00,
2013-07-23 17:01:00,87.4,12.4,30.06,NNE,21,2.2,4.0,6,0.00,,---,0.00,VWS V14.01,2013-07-23 23:01:00,
2013-07-23 17:02:00,87.4,12.4,30.06,East,81,2.2,4.0,6,0.00,,---,0.00,VWS V14.01,2013-07-23 23:02:00,
2013-07-23 17:04:00,87.3,12.2,30.06,East,83,0.0,4.0,6,0.00,,---,0.00,VWS V14.01,2013-07-23 23:04:00,
2013-07-23 17:05:00,87.4,12.4,30.06,North,0,4.9,4.9,6,0.00,,---,0.00,VWS V14.01,2013-07-23 23:05:00,
2013-07-23 17:07:00,87.4,12.4,30.06,NNE,17,2.2,4.9,6,0.00,,---,0.00,VWS V14.01,2013-07-23 23:07:00,
2013-07-23 17:10:00,88.0,8.7,30.06,North,357,3.6,4.9,5,0.00,,---,0.00,VWS V14.01,2013-07-23 23:10:00,
2013-07-23 17:11:00,88.2,8.8,30.06,NNW,335,3.1,4.9,5,0.00,,---,0.00,VWS V14.01,2013-07-23 23:11:00,
2013-07-23 17:12:00,88.3,8.9,30.06,NNW,331,2.7,4.9,5,0.00,,---,0.00,VWS V14.01,2013-07-23 23:12:00,
2013-07-23 17:15:00,88.3,8.9,30.06,NNW,327,5.8,5.8,5,0.00,,---,0.00,VWS V14.01,2013-07-23 23:15:00,
2013-07-23 17:16:00,88.2,8.8,30.06,North,357,5.4,6.3,5,0.00,,---,0.00,VWS V14.01,2013-07-23 23:16:00,
2013-07-23 17:17:00,88.0,8.7,30.06,NNE,27,7.6,7.6,5,0.00,,---,0.00,VWS V14.01,2013-07-23 23:17:00,
2013-07-23 17:20:00,87.4,12.4,30.06,NNE,20,3.6,7.6,6,0.00,,---,0.00,VWS V14.01,2013-07-23 23:20:00,
2013-07-23 17:22:00,87.4,12.4,30.06,NNE,18,0.0,7.6,6,0.00,,---,0.00,VWS V14.01,2013-07-23 23:22:00,
2013-07-23 17:23:00,87.4,12.4,30.06,North,357,5.4,7.6,6,0.00,,---,0.00,VWS V14.01,2013-07-23 23:23:00,
2013-07-23 17:26:00,87.3,12.2,30.06,North,9,4.9,7.6,6,0.00,,---,0.00,VWS V14.01,2013-07-23 23:26:00,
2013-07-23 17:27:00,87.1,12.1,30.06,North,1,4.0,7.6,6,0.00,,---,0.00,VWS V14.01,2013-07-23 23:27:00,
2013-07-23 17:30:00,87.3,12.2,30.06,North,0,4.0,6.3,6,0.00,,---,0.00,VWS V14.01,2013-07-23 23:30:00,
2013-07-23 17:31:00,87.3,12.2,30.06,NW,313,3.6,6.3,6,0.00,,---,0.00,VWS V14.01,2013-07-23 23:31:00,
2013-07-23 17:33:00,87.4,12.4,30.06,ENE,64,0.0,6.3,6,0.00,,---,0.00,VWS V14.01,2013-07-23 23:33:00,
2013-07-23 17:36:00,87.8,8.6,30.06,NNW,342,2.7,6.3,5,0.00,,---,0.00,VWS V14.01,2013-07-23 23:36:00,
2013-07-23 17:39:00,88.2,8.8,30.06,North,357,4.0,6.3,5,0.00,,---,0.00,VWS V14.01,2013-07-23 23:39:00,
2013-07-23 17:41:00,88.2,8.8,30.06,North,353,5.8,6.3,5,0.00,,---,0.00,VWS V14.01,2013-07-23 23:41:00,
2013-07-23 17:42:00,88.2,8.8,30.06,North,353,5.8,6.3,5,0.00,,---,0.00,VWS V14.01,2013-07-23 23:42:00,
2013-07-23 17:43:00,88.0,8.7,30.06,North,7,4.9,6.3,5,0.00,,---,0.00,VWS V14.01,2013-07-23 23:43:00,
2013-07-23 17:45:00,87.8,8.6,30.06,North,353,2.7,6.3,5,0.00,,---,0.00,VWS V14.01,2013-07-23 23:45:00,
2013-07-23 17:46:00,87.8,8.6,30.06,North,4,5.8,7.6,5,0.00,,---,0.00,VWS V14.01,2013-07-23 23:46:00,
2013-07-23 17:47:00,87.8,8.6,30.06,NNE,25,6.3,7.6,5,0.00,,---,0.00,VWS V14.01,2013-07-23 23:47:00,
2013-07-23 17:48:00,87.6,12.5,30.06,North,357,4.9,7.6,6,0.00,,---,0.00,VWS V14.01,2013-07-23 23:48:00,
2013-07-23 17:50:00,87.3,12.2,30.06,NNE,15,2.2,7.6,6,0.00,,---,0.00,VWS V14.01,2013-07-23 23:50:00,
2013-07-23 17:52:00,87.1,12.1,30.06,North,4,3.6,7.6,6,0.00,,---,0.00,VWS V14.01,2013-07-23 23:52:00,
2013-07-23 17:55:00,86.9,12.0,30.06,NNE,20,4.9,7.6,6,0.00,,---,0.00,VWS V14.01,2013-07-23 23:55:00,
2013-07-23 17:57:00,86.9,12.0,30.06,North,4,5.4,7.6,6,0.00,,---,0.00,VWS V14.01,2013-07-23 23:57:00,
2013-07-23 18:00:00,86.9,12.0,30.06,North,9,3.1,3.1,6,0.00,,---,0.00,VWS V14.01,2013-07-24 00:00:00,
2013-07-23 18:03:00,86.7,11.9,30.06,North,9,4.0,5.4,6,0.00,,---,0.00,VWS V14.01,2013-07-24 00:03:00,
2013-07-23 18:05:00,86.7,11.9,30.06,North,3,5.4,5.4,6,0.00,,---,0.00,VWS V14.01,2013-07-24 00:05:00,
2013-07-23 18:09:00,86.7,11.9,30.06,North,0,5.4,5.4,6,0.00,,---,0.00,VWS V14.01,2013-07-24 00:09:00,
2013-07-23 18:10:00,86.7,11.9,30.06,North,8,4.0,6.7,6,0.00,,---,0.00,VWS V14.01,2013-07-24 00:10:00,
2013-07-23 18:12:00,86.5,11.7,30.06,NNE,17,0.0,6.7,6,0.00,,---,0.00,VWS V14.01,2013-07-24 00:12:00,
2013-07-23 18:14:00,86.7,11.9,30.09,North,11,2.7,6.7,6,0.00,,---,0.00,VWS V14.01,2013-07-24 00:14:00,
2013-07-23 18:15:00,86.7,11.9,30.09,North,11,3.6,6.7,6,0.00,,---,0.00,VWS V14.01,2013-07-24 00:15:00,
2013-07-23 18:17:00,86.7,11.9,30.09,North,8,4.9,4.9,6,0.00,,---,0.00,VWS V14.01,2013-07-24 00:17:00,
2013-07-23 18:18:00,86.7,11.9,30.09,North,5,4.0,4.9,6,0.00,,---,0.00,VWS V14.01,2013-07-24 00:18:00,
2013-07-23 18:20:00,86.7,11.9,30.09,North,357,5.4,6.3,6,0.00,,---,0.00,VWS V14.01,2013-07-24 00:20:00,
2013-07-23 18:24:00,86.5,11.7,30.09,North,0,3.1,6.3,6,0.00,,---,0.00,VWS V14.01,2013-07-24 00:24:00,
2013-07-23 18:25:00,86.4,11.6,30.09,North,2,4.9,6.3,6,0.00,,---,0.00,VWS V14.01,2013-07-24 00:25:00,
2013-07-23 18:26:00,86.4,11.6,30.09,NE,53,0.0,6.3,6,0.00,,---,0.00,VWS V14.01,2013-07-24 00:26:00,
2013-07-23 18:29:00,86.2,11.5,30.09,ENE,70,3.1,6.3,6,0.00,,---,0.00,VWS V14.01,2013-07-24 00:29:00,
2013-07-23 18:32:00,86.4,11.6,30.09,NE,54,0.0,2.2,6,0.00,,---,0.00,VWS V14.01,2013-07-24 00:32:00,
2013-07-23 18:33:00,86.4,11.6,30.09,NE,54,0.0,2.7,6,0.00,,---,0.00,VWS V14.01,2013-07-24 00:33:00,
2013-07-23 18:34:00,86.5,11.7,30.09,NE,54,0.0,2.7,6,0.00,,---,0.00,VWS V14.01,2013-07-24 00:34:00,
2013-07-23 18:35:00,86.5,11.7,30.09,NE,54,0.0,2.7,6,0.00,,---,0.00,VWS V14.01,2013-07-24 00:35:00,
2013-07-23 18:38:00,86.5,11.7,30.09,NNE,26,2.2,4.0,6,0.00,,---,0.00,VWS V14.01,2013-07-24 00:38:00,
2013-07-23 18:39:00,86.4,11.6,30.09,NNW,337,3.6,4.0,6,0.00,,---,0.00,VWS V14.01,2013-07-24 00:39:00,
2013-07-23 18:40:00,86.4,11.6,30.09,NNW,337,2.7,4.0,6,0.00,,---,0.00,VWS V14.01,2013-07-24 00:40:00,
2013-07-23 18:43:00,86.2,11.5,30.06,NNE,22,4.0,6.3,6,0.00,,---,0.00,VWS V14.01,2013-07-24 00:43:00,
2013-07-23 18:45:00,86.0,11.4,30.06,North,0,2.7,3.6,6,0.00,,---,0.00,VWS V14.01,2013-07-24 00:45:00,
2013-07-23 18:46:00,86.0,11.4,30.06,North,5,2.7,3.6,6,0.00,,---,0.00,VWS V14.01,2013-07-24 00:46:00,
2013-07-23 18:48:00,86.2,11.5,30.06,NNE,28,3.1,4.0,6,0.00,,---,0.00,VWS V14.01,2013-07-24 00:48:00,
2013-07-23 18:49:00,86.2,11.5,30.06,North,10,3.1,4.0,6,0.00,,---,0.00,VWS V14.01,2013-07-24 00:49:00,
2013-07-23 18:51:00,86.2,11.5,30.06,North,10,0.0,4.0,6,0.00,,---,0.00,VWS V14.01,2013-07-24 00:51:00,
2013-07-23 18:54:00,86.5,11.7,30.06,NNE,30,3.1,4.0,6,0.00,,---,0.00,VWS V14.01,2013-07-24 00:54:00,
2013-07-23 18:55:00,86.5,11.7,30.06,NNE,22,2.7,4.0,6,0.00,,---,0.00,VWS V14.01,2013-07-24 00:55:00,
2013-07-23 18:57:00,86.4,11.6,30.06,North,0,2.7,4.0,6,0.00,,---,0.00,VWS V14.01,2013-07-24 00:57:00,
2013-07-23 18:59:00,86.0,11.4,30.06,ENE,67,0.0,4.0,6,0.00,,---,0.00,VWS V14.01,2013-07-24 00:59:00,
2013-07-23 19:00:00,85.8,11.2,30.06,East,86,2.7,4.0,6,0.00,,---,0.00,VWS V14.01,2013-07-24 01:00:00,
2013-07-23 19:02:00,85.5,11.0,30.06,NNE,17,3.6,3.6,6,0.00,,---,0.00,VWS V14.01,2013-07-24 01:02:00,
2013-07-23 19:03:00,85.3,10.8,30.06,NNE,25,2.7,3.6,6,0.00,,---,0.00,VWS V14.01,2013-07-24 01:03:00,
2013-07-23 19:05:00,85.1,10.7,30.06,NNE,22,2.7,3.6,6,0.00,,---,0.00,VWS V14.01,2013-07-24 01:05:00,
2013-07-23 19:06:00,84.7,10.4,30.06,North,357,4.0,4.0,6,0.00,,---,0.00,VWS V14.01,2013-07-24 01:06:00,
2013-07-23 19:07:00,84.6,10.3,30.06,North,357,4.0,4.0,6,0.00,,---,0.00,VWS V14.01,2013-07-24 01:07:00,
2013-07-23 19:09:00,84.4,10.2,30.06,North,0,3.6,4.0,6,0.00,,---,0.00,VWS V14.01,2013-07-24 01:09:00,
2013-07-23 19:10:00,84.2,10.1,30.06,North,357,3.1,4.0,6,0.00,,---,0.00,VWS V14.01,2013-07-24 01:10:00,
2013-07-23 19:12:00,84.0,9.9,30.06,NNE,13,3.1,5.8,6,0.00,,---,0.00,VWS V14.01,2013-07-24 01:12:00,
2013-07-23 19:14:00,83.8,9.8,30.09,North,10,3.1,5.8,6,0.00,,---,0.00,VWS V14.01,2013-07-24 01:14:00,
2013-07-23 19:17:00,83.7,9.7,30.09,North,0,2.7,3.6,6,0.00,,---,0.00,VWS V14.01,2013-07-24 01:17:00,
2013-07-23 19:18:00,83.7,9.7,30.09,North,0,3.1,3.6,6,0.00,,---,0.00,VWS V14.01,2013-07-24 01:18:00,
2013-07-23 19:20:00,83.7,9.7,30.09,North,353,2.7,3.6,6,0.00,,---,0.00,VWS V14.01,2013-07-24 01:20:00,
2013-07-23 19:22:00,83.7,9.7,30.09,North,0,4.9,5.8,6,0.00,,---,0.00,VWS V14.01,2013-07-24 01:22:00,
2013-07-23 19:24:00,83.7,9.7,30.09,North,9,2.2,5.8,6,0.00,,---,0.00,VWS V14.01,2013-07-24 01:24:00,
2013-07-23 19:25:00,83.7,9.7,30.09,NNE,21,3.6,5.8,6,0.00,,---,0.00,VWS V14.01,2013-07-24 01:25:00,
2013-07-23 19:26:00,83.7,9.7,30.09,NNE,13,2.2,5.8,6,0.00,,---,0.00,VWS V14.01,2013-07-24 01:26:00,
2013-07-23 19:27:00,83.7,9.7,30.09,NNE,16,2.7,5.8,6,0.00,,---,0.00,VWS V14.01,2013-07-24 01:27:00,
2013-07-23 19:29:00,83.5,9.5,30.09,NNE,32,2.7,5.8,6,0.00,,---,0.00,VWS V14.01,2013-07-24 01:29:00,
2013-07-23 19:30:00,83.5,9.5,30.09,ENE,63,0.0,0.0,6,0.00,,---,0.00,VWS V14.01,2013-07-24 01:30:00,
2013-07-23 19:32:00,83.5,9.5,30.09,NNE,31,2.2,2.7,6,0.00,,---,0.00,VWS V14.01,2013-07-24 01:32:00,
2013-07-23 19:36:00,83.3,9.4,30.09,North,11,0.0,3.1,6,0.00,,---,0.00,VWS V14.01,2013-07-24 01:36:00,
2013-07-23 19:37:00,83.3,9.4,30.09,North,11,0.0,3.1,6,0.00,,---,0.00,VWS V14.01,2013-07-24 01:37:00,
2013-07-23 19:38:00,83.1,9.3,30.09,East,81,0.0,3.1,6,0.00,,---,0.00,VWS V14.01,2013-07-24 01:38:00,
2013-07-23 19:42:00,82.8,9.0,30.09,North,9,0.0,3.1,6,0.00,,---,0.00,VWS V14.01,2013-07-24 01:42:00,
2013-07-23 19:43:00,82.8,9.0,30.09,North,9,0.0,3.1,6,0.00,,---,0.00,VWS V14.01,2013-07-24 01:43:00,
2013-07-23 19:48:00,82.6,8.9,30.09,North,10,2.7,4.0,6,0.00,,---,0.00,VWS V14.01,2013-07-24 01:48:00,
2013-07-23 19:49:00,82.6,8.9,30.09,North,11,3.1,4.0,6,0.00,,---,0.00,VWS V14.01,2013-07-24 01:49:00,
2013-07-23 19:53:00,82.4,8.8,30.09,North,10,2.2,4.0,6,0.00,,---,0.00,VWS V14.01,2013-07-24 01:53:00,
2013-07-23 19:54:00,82.4,8.8,30.09,North,10,2.7,4.0,6,0.00,,---,0.00,VWS V14.01,2013-07-24 01:54:00,
2013-07-23 19:59:00,82.2,12.1,30.09,North,9,2.2,4.0,7,0.00,,---,0.00,VWS V14.01,2013-07-24 01:59:00,
2013-07-23 20:00:00,82.2,12.1,30.09,North,9,0.0,4.0,7,0.00,,---,0.00,VWS V14.01,2013-07-24 02:00:00,
2013-07-23 20:05:00,81.9,11.8,30.09,NNW,346,2.2,3.6,7,0.00,,---,0.00,VWS V14.01,2013-07-24 02:05:00,
2013-07-23 20:10:00,81.7,11.7,30.09,NNW,346,2.2,3.6,7,0.00,,---,0.00,VWS V14.01,2013-07-24 02:10:00,
2013-07-23 20:11:00,81.7,11.7,30.09,North,6,2.2,3.6,7,0.00,,---,0.00,VWS V14.01,2013-07-24 02:11:00,
2013-07-23 20:16:00,81.7,11.7,30.09,North,353,2.2,2.2,7,0.00,,---,0.00,VWS V14.01,2013-07-24 02:16:00,
2013-07-23 20:21:00,81.5,11.6,30.09,North,353,0.0,2.7,7,0.00,,---,0.00,VWS V14.01,2013-07-24 02:21:00,
2013-07-23 20:23:00,81.3,11.4,30.09,North,353,0.0,2.7,7,0.00,,---,0.00,VWS V14.01,2013-07-24 02:23:00,
2013-07-23 20:26:00,81.0,11.2,30.09,North,353,0.0,2.7,7,0.00,,---,0.00,VWS V14.01,2013-07-24 02:26:00,
2013-07-23 20:28:00,80.8,11.0,30.09,North,353,0.0,2.7,7,0.00,,---,0.00,VWS V14.01,2013-07-24 02:28:00,
2013-07-23 20:31:00,80.4,10.8,30.09,North,353,0.0,0.0,7,0.00,,---,0.00,VWS V14.01,2013-07-24 02:31:00,
2013-07-23 20:33:00,80.2,10.6,30.09,North,353,0.0,0.0,7,0.00,,---,0.00,VWS V14.01,2013-07-24 02:33:00,
2013-07-23 20:35:00,80.2,10.6,30.09,North,353,0.0,0.0,7,0.00,,---,0.00,VWS V14.01,2013-07-24 02:35:00,
2013-07-23 20:36:00,80.1,10.5,30.09,North,353,0.0,0.0,7,0.00,,---,0.00,VWS V14.01,2013-07-24 02:36:00,
2013-07-23 20:37:00,80.1,10.5,30.09,North,353,0.0,0.0,7,0.00,,---,0.00,VWS V14.01,2013-07-24 02:37:00,
2013-07-23 20:38:00,79.7,10.2,30.09,North,353,0.0,0.0,7,0.00,,---,0.00,VWS V14.01,2013-07-24 02:38:00,
2013-07-23 20:40:00,79.5,10.1,30.09,North,353,0.0,0.0,7,0.00,,---,0.00,VWS V14.01,2013-07-24 02:40:00,
2013-07-23 20:43:00,79.0,9.7,30.09,North,353,0.0,0.0,7,0.00,,---,0.00,VWS V14.01,2013-07-24 02:43:00,
2013-07-23 20:44:00,78.8,9.6,30.09,North,353,0.0,0.0,7,0.00,,---,0.00,VWS V14.01,2013-07-24 02:44:00,
2013-07-23 20:46:00,78.4,12.3,30.09,North,353,0.0,0.0,8,0.00,,---,0.00,VWS V14.01,2013-07-24 02:46:00,
2013-07-23 20:49:00,77.9,11.9,30.09,North,353,0.0,0.0,8,0.00,,---,0.00,VWS V14.01,2013-07-24 02:49:00,
2013-07-23 20:50:00,77.7,11.8,30.09,North,353,0.0,0.0,8,0.00,,---,0.00,VWS V14.01,2013-07-24 02:50:00,
2013-07-23 20:51:00,77.4,11.5,30.09,North,353,0.0,0.0,8,0.00,,---,0.00,VWS V14.01,2013-07-24 02:51:00,
2013-07-23 20:54:00,77.0,11.2,30.09,North,353,0.0,0.0,8,0.00,,---,0.00,VWS V14.01,2013-07-24 02:54:00,
2013-07-23 20:55:00,77.0,11.2,30.09,North,353,0.0,0.0,8,0.00,,---,0.00,VWS V14.01,2013-07-24 02:55:00,
2013-07-23 20:57:00,76.5,10.8,30.09,North,353,0.0,0.0,8,0.00,,---,0.00,VWS V14.01,2013-07-24 02:57:00,
2013-07-23 20:59:00,76.3,10.7,30.09,North,353,0.0,0.0,8,0.00,,---,0.00,VWS V14.01,2013-07-24 02:59:00,
2013-07-23 21:01:00,75.9,10.4,30.09,North,353,0.0,0.0,8,0.00,,---,0.00,VWS V14.01,2013-07-24 03:01:00,
2013-07-23 21:02:00,75.7,10.3,30.09,North,353,0.0,0.0,8,0.00,,---,0.00,VWS V14.01,2013-07-24 03:02:00,
2013-07-23 21:03:00,75.7,10.3,30.09,North,353,0.0,0.0,8,0.00,,---,0.00,VWS V14.01,2013-07-24 03:03:00,
2013-07-23 21:05:00,75.4,10.0,30.09,North,353,0.0,0.0,8,0.00,,---,0.00,VWS V14.01,2013-07-24 03:05:00,
2013-07-23 21:06:00,75.4,10.0,30.09,North,353,0.0,0.0,8,0.00,,---,0.00,VWS V14.01,2013-07-24 03:06:00,
2013-07-23 21:08:00,75.2,9.9,30.09,North,353,0.0,0.0,8,0.00,,---,0.00,VWS V14.01,2013-07-24 03:08:00,
2013-07-23 21:09:00,75.0,9.8,30.09,North,353,0.0,0.0,8,0.00,,---,0.00,VWS V14.01,2013-07-24 03:09:00,
2013-07-23 21:10:00,75.0,9.8,30.09,North,6,0.0,0.0,8,0.00,,---,0.00,VWS V14.01,2013-07-24 03:10:00,
2013-07-23 21:12:00,74.7,9.5,30.09,East,86,2.2,2.7,8,0.00,,---,0.00,VWS V14.01,2013-07-24 03:12:00,
2013-07-23 21:13:00,74.3,9.2,30.09,East,86,2.2,2.7,8,0.00,,---,0.00,VWS V14.01,2013-07-24 03:13:00,
2013-07-23 21:14:00,74.3,9.2,30.09,ESE,106,2.7,2.7,8,0.00,,---,0.00,VWS V14.01,2013-07-24 03:14:00,
2013-07-23 21:15:00,74.1,9.1,30.09,SSE,165,3.1,3.1,8,0.00,,---,0.00,VWS V14.01,2013-07-24 03:15:00,
2013-07-23 21:17:00,73.8,8.8,30.09,SSE,167,0.0,3.6,8,0.00,,---,0.00,VWS V14.01,2013-07-24 03:17:00,
2013-07-23 21:20:00,73.4,8.6,30.09,South,184,3.1,3.6,8,0.00,,---,0.00,VWS V14.01,2013-07-24 03:20:00,
2013-07-23 21:22:00,72.9,10.8,30.09,SSW,193,3.6,4.0,9,0.00,,---,0.00,VWS V14.01,2013-07-24 03:22:00,
2013-07-23 21:25:00,72.5,10.5,30.09,SSW,194,4.9,6.7,9,0.00,,---,0.00,VWS V14.01,2013-07-24 03:25:00,
2013-07-23 21:26:00,72.3,10.4,30.09,South,186,3.1,6.7,9,0.00,,---,0.00,VWS V14.01,2013-07-24 03:26:00,
2013-07-23 21:29:00,72.1,10.2,30.09,SSW,193,5.4,6.7,9,0.00,,---,0.00,VWS V14.01,2013-07-24 03:29:00,
2013-07-23 21:30:00,72.0,10.1,30.09,SSW,196,4.0,4.0,9,0.00,,---,0.00,VWS V14.01,2013-07-24 03:30:00,
2013-07-23 21:31:00,72.0,10.1,30.09,SSW,196,4.0,4.0,9,0.00,,---,0.00,VWS V14.01,2013-07-24 03:31:00,
2013-07-23 21:33:00,71.8,10.0,30.09,SSW,200,5.4,5.4,9,0.00,,---,0.00,VWS V14.01,2013-07-24 03:33:00,
2013-07-23 21:34:00,71.8,10.0,30.09,South,191,4.0,5.4,9,0.00,,---,0.00,VWS V14.01,2013-07-24 03:34:00,
2013-07-23 21:37:00,71.4,9.7,30.09,South,186,4.0,5.8,9,0.00,,---,0.00,VWS V14.01,2013-07-24 03:37:00,
2013-07-23 21:38:00,71.4,9.7,30.09,South,186,4.0,5.8,9,0.00,,---,0.00,VWS V14.01,2013-07-24 03:38:00,
2013-07-23 21:39:00,71.4,9.7,30.09,SSW,203,6.3,6.3,9,0.00,,---,0.00,VWS V14.01,2013-07-24 03:39:00,
2013-07-23 21:43:00,71.1,9.4,30.09,South,190,4.9,6.3,9,0.00,,---,0.00,VWS V14.01,2013-07-24 03:43:00,
2013-07-23 21:44:00,71.1,9.4,30.09,SSW,206,5.8,6.3,9,0.00,,---,0.00,VWS V14.01,2013-07-24 03:44:00,
2013-07-23 21:48:00,71.1,9.4,30.09,South,186,3.6,6.3,9,0.00,,---,0.00,VWS V14.01,2013-07-24 03:48:00,
2013-07-23 21:49:00,71.1,9.4,30.09,South,188,6.3,7.6,9,0.00,,---,0.00,VWS V14.01,2013-07-24 03:49:00,
2013-07-23 21:53:00,71.1,9.4,30.09,SSW,204,5.4,8.1,9,0.00,,---,0.00,VWS V14.01,2013-07-24 03:53:00,
2013-07-23 21:54:00,70.9,9.3,30.09,SSW,196,6.7,8.3,9,0.00,,---,0.00,VWS V14.01,2013-07-24 03:54:00,
2013-07-23 21:55:00,70.9,9.3,30.09,SSW,196,6.7,8.3,9,0.00,,---,0.00,VWS V14.01,2013-07-24 03:55:00,
2013-07-23 21:59:00,70.9,9.3,30.09,SSW,196,5.8,8.3,9,0.00,,---,0.00,VWS V14.01,2013-07-24 03:59:00,
2013-07-23 22:00:00,70.9,9.3,30.09,SSW,198,6.3,8.3,9,0.00,,---,0.00,VWS V14.01,2013-07-24 04:00:00,
2013-07-23 22:01:00,70.9,9.3,30.09,SSW,197,7.6,7.6,9,0.00,,---,0.00,VWS V14.01,2013-07-24 04:01:00,
2013-07-23 22:06:00,70.9,9.3,30.09,SSW,212,5.8,8.7,9,0.00,,---,0.00,VWS V14.01,2013-07-24 04:06:00,
2013-07-23 22:11:00,70.5,9.0,30.09,SSW,207,7.6,8.7,9,0.00,,---,0.00,VWS V14.01,2013-07-24 04:11:00,
2013-07-23 22:12:00,70.5,9.0,30.09,SSW,202,7.6,8.7,9,0.00,,---,0.00,VWS V14.01,2013-07-24 04:12:00,
2013-07-23 22:16:00,70.2,8.7,30.09,SSW,194,8.3,8.3,9,0.00,,---,0.00,VWS V14.01,2013-07-24 04:16:00,
2013-07-23 22:17:00,70.2,8.7,30.09,South,186,6.3,8.3,9,0.00,,---,0.00,VWS V14.01,2013-07-24 04:17:00,
2013-07-23 22:21:00,70.5,9.0,30.09,SSW,207,5.8,8.3,9,0.00,,---,0.00,VWS V14.01,2013-07-24 04:21:00,
2013-07-23 22:22:00,70.5,9.0,30.09,SSW,194,8.1,8.3,9,0.00,,---,0.00,VWS V14.01,2013-07-24 04:22:00,
2013-07-23 22:23:00,70.7,9.1,30.09,South,184,8.1,8.3,9,0.00,,---,0.00,VWS V14.01,2013-07-24 04:23:00,
2013-07-23 22:26:00,70.9,9.3,30.09,SSW,201,5.8,8.7,9,0.00,,---,0.00,VWS V14.01,2013-07-24 04:26:00,
2013-07-23 22:27:00,70.9,9.3,30.09,SSW,195,8.3,8.7,9,0.00,,---,0.00,VWS V14.01,2013-07-24 04:27:00,
2013-07-23 22:28:00,70.9,9.3,30.06,SSW,193,4.9,8.7,9,0.00,,---,0.00,VWS V14.01,2013-07-24 04:28:00,
2013-07-23 22:31:00,70.7,9.1,30.06,SW,236,2.7,4.0,9,0.00,,---,0.00,VWS V14.01,2013-07-24 04:31:00,
2013-07-23 22:32:00,70.7,9.1,30.06,SW,236,2.7,4.0,9,0.00,,---,0.00,VWS V14.01,2013-07-24 04:32:00,
2013-07-23 22:34:00,70.3,8.9,30.06,West,274,0.0,4.0,9,0.00,,---,0.00,VWS V14.01,2013-07-24 04:34:00,
2013-07-23 22:36:00,70.0,8.6,30.06,South,181,3.1,5.4,9,0.00,,---,0.00,VWS V14.01,2013-07-24 04:36:00,
2013-07-23 22:37:00,70.0,8.6,30.06,SSW,194,3.6,5.4,9,0.00,,---,0.00,VWS V14.01,2013-07-24 04:37:00,
2013-07-23 22:39:00,70.0,8.6,30.06,SSW,206,0.0,5.4,9,0.00,,---,0.00,VWS V14.01,2013-07-24 04:39:00,
2013-07-23 22:41:00,70.0,8.6,30.06,SSE,160,2.7,5.4,9,0.00,,---,0.00,VWS V14.01,2013-07-24 04:41:00,
2013-07-23 22:42:00,70.0,8.6,30.06,SSE,154,2.7,5.4,9,0.00,,---,0.00,VWS V14.01,2013-07-24 04:42:00,
2013-07-23 22:44:00,69.8,8.5,30.09,South,185,2.7,5.4,9,0.00,,---,0.00,VWS V14.01,2013-07-24 04:44:00,
2013-07-23 22:46:00,69.8,8.5,30.09,SSW,195,4.0,4.9,9,0.00,,---,0.00,VWS V14.01,2013-07-24 04:46:00,
2013-07-23 22:47:00,69.6,10.7,30.09,SSW,196,3.6,4.9,10,0.00,,---,0.00,VWS V14.01,2013-07-24 04:47:00,
2013-07-23 22:49:00,69.6,10.7,30.09,SSW,192,2.2,4.9,10,0.00,,---,0.00,VWS V14.01,2013-07-24 04:49:00,
2013-07-23 22:52:00,69.4,10.5,30.09,South,183,0.0,4.9,10,0.00,,---,0.00,VWS V14.01,2013-07-24 04:52:00,
2013-07-23 22:53:00,69.4,10.5,30.09,South,177,2.7,4.9,10,0.00,,---,0.00,VWS V14.01,2013-07-24 04:53:00,
2013-07-23 22:54:00,69.3,10.4,30.09,South,178,2.7,4.9,10,0.00,,---,0.00,VWS V14.01,2013-07-24 04:54:00,
2013-07-23 22:57:00,68.9,10.1,30.09,SSW,198,3.6,4.9,10,0.00,,---,0.00,VWS V14.01,2013-07-24 04:57:00,
2013-07-23 22:58:00,68.9,10.1,30.09,SSW,197,3.1,4.9,10,0.00,,---,0.00,VWS V14.01,2013-07-24 04:58:00,
2013-07-23 23:00:00,68.7,10.0,30.09,South,184,2.7,4.9,10,0.00,,---,0.00,VWS V14.01,2013-07-24 05:00:00,
2013-07-23 23:02:00,68.4,9.7,30.09,South,191,3.6,4.0,10,0.00,,---,0.00,VWS V14.01,2013-07-24 05:02:00,
2013-07-23 23:03:00,68.4,9.7,30.09,South,186,2.7,4.0,10,0.00,,---,0.00,VWS V14.01,2013-07-24 05:03:00,
2013-07-23 23:05:00,68.0,9.4,30.09,South,187,4.9,4.9,10,0.00,,---,0.00,VWS V14.01,2013-07-24 05:05:00,
2013-07-23 23:07:00,68.0,9.4,30.09,SSW,196,4.0,5.4,10,0.00,,---,0.00,VWS V14.01,2013-07-24 05:07:00,
2013-07-23 23:08:00,68.0,9.4,30.09,SSW,196,3.6,5.4,10,0.00,,---,0.00,VWS V14.01,2013-07-24 05:08:00,
2013-07-23 23:10:00,67.8,9.3,30.09,SSW,193,4.9,5.4,10,0.00,,---,0.00,VWS V14.01,2013-07-24 05:10:00,
2013-07-23 23:13:00,67.6,9.1,30.09,SSW,204,5.8,5.8,10,0.00,,---,0.00,VWS V14.01,2013-07-24 05:13:00,
2013-07-23 23:14:00,67.6,9.1,30.09,South,185,4.0,5.8,10,0.00,,---,0.00,VWS V14.01,2013-07-24 05:14:00,
2013-07-23 23:15:00,67.6,9.1,30.09,SSW,201,3.6,4.0,10,0.00,,---,0.00,VWS V14.01,2013-07-24 05:15:00,
2013-07-23 23:18:00,67.6,9.1,30.09,SSW,207,2.7,4.0,10,0.00,,---,0.00,VWS V14.01,2013-07-24 05:18:00,
2013-07-23 23:19:00,67.6,9.1,30.09,SSW,208,2.7,4.0,10,0.00,,---,0.00,VWS V14.01,2013-07-24 05:19:00,
2013-07-23 23:20:00,67.6,9.1,30.09,SSW,196,3.1,4.0,10,0.00,,---,0.00,VWS V14.01,2013-07-24 05:20:00,
2013-07-23 23:23:00,67.6,9.1,30.09,SSW,201,4.0,4.0,10,0.00,,---,0.00,VWS V14.01,2013-07-24 05:23:00,
2013-07-23 23:24:00,67.8,9.3,30.09,SSW,198,4.0,4.0,10,0.00,,---,0.00,VWS V14.01,2013-07-24 05:24:00,
2013-07-23 23:25:00,67.8,9.3,30.09,SSW,198,3.1,4.0,10,0.00,,---,0.00,VWS V14.01,2013-07-24 05:25:00,
2013-07-23 23:28:00,67.8,9.3,30.09,SSW,194,4.0,4.5,10,0.00,,---,0.00,VWS V14.01,2013-07-24 05:28:00,
2013-07-23 23:29:00,67.8,9.3,30.09,SSW,196,3.6,4.5,10,0.00,,---,0.00,VWS V14.01,2013-07-24 05:29:00,
2013-07-23 23:30:00,67.8,9.3,30.09,SSW,195,4.9,4.9,10,0.00,,---,0.00,VWS V14.01,2013-07-24 05:30:00,
2013-07-23 23:33:00,67.8,9.3,30.09,South,184,6.3,6.3,10,0.00,,---,0.00,VWS V14.01,2013-07-24 05:33:00,
2013-07-23 23:34:00,67.8,9.3,30.09,SSW,197,4.9,6.3,10,0.00,,---,0.00,VWS V14.01,2013-07-24 05:34:00,
2013-07-23 23:36:00,67.8,9.3,30.09,SSW,194,5.4,6.3,10,0.00,,---,0.00,VWS V14.01,2013-07-24 05:36:00,
2013-07-23 23:38:00,67.6,9.1,30.09,SSW,201,5.8,6.3,10,0.00,,---,0.00,VWS V14.01,2013-07-24 05:38:00,
2013-07-23 23:39:00,67.6,9.1,30.09,SSW,208,6.3,6.3,10,0.00,,---,0.00,VWS V14.01,2013-07-24 05:39:00,
2013-07-23 23:40:00,67.6,9.1,30.09,SSW,201,5.4,6.3,10,0.00,,---,0.00,VWS V14.01,2013-07-24 05:40:00,
2013-07-23 23:41:00,67.6,9.1,30.09,South,191,4.9,6.3,10,0.00,,---,0.00,VWS V14.01,2013-07-24 05:41:00,
2013-07-23 23:43:00,67.6,9.1,30.09,SSW,200,4.0,6.3,10,0.00,,---,0.00,VWS V14.01,2013-07-24 05:43:00,
2013-07-23 23:45:00,67.5,9.0,30.09,SSW,199,5.8,6.3,10,0.00,,---,0.00,VWS V14.01,2013-07-24 05:45:00,
2013-07-23 23:46:00,67.5,9.0,30.09,SSW,196,4.9,5.4,10,0.00,,---,0.00,VWS V14.01,2013-07-24 05:46:00,
2013-07-23 23:48:00,67.3,8.9,30.09,SSW,201,4.0,5.4,10,0.00,,---,0.00,VWS V14.01,2013-07-24 05:48:00,
2013-07-23 23:50:00,67.1,8.7,30.09,South,191,3.6,5.4,10,0.00,,---,0.00,VWS V14.01,2013-07-24 05:50:00,
2013-07-23 23:51:00,67.1,8.7,30.09,SSW,196,3.6,5.4,10,0.00,,---,0.00,VWS V14.01,2013-07-24 05:51:00,
2013-07-23 23:54:00,66.9,8.6,30.09,South,183,5.4,5.8,10,0.00,,---,0.00,VWS V14.01,2013-07-24 05:54:00,
2013-07-23 23:55:00,66.9,8.6,30.09,SSW,200,5.4,5.8,10,0.00,,---,0.00,VWS V14.01,2013-07-24 05:55:00,
2013-07-23 23:56:00,66.9,8.6,30.09,SSW,192,5.4,6.7,10,0.00,,---,0.00,VWS V14.01,2013-07-24 05:56:00,
2013-07-23 23:57:00,66.9,8.6,30.09,SSW,202,4.0,6.7,10,0.00,,---,0.00,VWS V14.01,2013-07-24 05:57:00,
2013-07-23 23:59:00,66.9,8.6,30.09,South,189,5.4,7.6,10,0.00,,---,0.00,VWS V14.01,2013-07-24 05:59:00,